Time,TemperatureF,DewpointF,PressureIn,WindDirection,WindDirectionDegrees,WindSpeedMPH,WindSpeedGustMPH,Humidity,HourlyPrecipIn,Conditions,Clouds,dailyrainin,SolarRadiationWatts/m^2,SoftwareType,DateUTC
2013-10-07 00:00:00,65.0,62.0,29.95,South,182,0.0,0.0,90,0.00,,,0.01,0.00,VWS V14.01,2013-10-07 04:00:00,
2013-10-07 00:01:00,65.0,62.0,29.95,South,181,0.0,3.0,90,0.00,,,0.00,0.00,VWS V14.01,2013-10-07 04:01:00,
2013-10-07 00:05:00,65.0,62.0,29.95,South,181,0.0,0.0,90,0.00,,,0.00,0.00,VWS V14.01,2013-10-07 04:05:00,
2013-10-07 00:06:00,64.8,61.5,29.95,South,181,0.0,0.0,89,0.00,,,0.00,0.00,VWS V14.01,2013-10-07 04:06:00,
2013-10-07 00:10:00,65.0,61.7,29.95,South,181,0.0,0.0,89,0.00,,,0.00,0.00,VWS V14.01,2013-10-07 04:10:00,
2013-10-07 00:11:00,65.0,61.7,29.95,South,181,0.0,0.0,89,0.00,,,0.00,0.00,VWS V14.01,2013-10-07 04:11:00,
2013-10-07 00:15:00,64.8,61.5,29.95,South,175,3.0,3.0,89,0.00,,,0.00,0.00,VWS V14.01,2013-10-07 04:15:00,
2013-10-07 00:16:00,64.8,61.5,29.95,South,174,0.0,3.0,89,0.00,,,0.00,0.00,VWS V14.01,2013-10-07 04:16:00,
2013-10-07 00:20:00,65.0,61.7,29.95,ESE,112,4.0,8.0,89,0.00,,,0.00,0.00,VWS V14.01,2013-10-07 04:20:00,
2013-10-07 00:21:00,65.0,61.7,29.95,South,178,2.0,4.0,89,0.00,,,0.00,0.00,VWS V14.01,2013-10-07 04:21:00,
2013-10-07 00:25:00,65.0,61.4,29.95,SSE,164,0.0,0.0,88,0.00,,,0.00,0.00,VWS V14.01,2013-10-07 04:25:00,
2013-10-07 00:26:00,65.0,61.4,29.95,South,174,0.0,5.0,88,0.00,,,0.00,0.00,VWS V14.01,2013-10-07 04:26:00,
2013-10-07 00:30:00,65.2,61.6,29.95,SE,137,0.0,6.0,88,0.00,,,0.00,0.00,VWS V14.01,2013-10-07 04:30:00,
2013-10-07 00:31:00,65.2,61.6,29.95,SE,137,0.0,0.0,88,0.00,,,0.00,0.00,VWS V14.01,2013-10-07 04:31:00,
2013-10-07 00:35:00,65.2,61.2,29.95,SE,136,0.0,3.0,87,0.00,,,0.00,0.00,VWS V14.01,2013-10-07 04:35:00,
2013-10-07 00:36:00,65.2,61.2,29.95,SE,136,0.0,0.0,87,0.00,,,0.00,0.00,VWS V14.01,2013-10-07 04:36:00,
2013-10-07 00:40:00,65.0,61.0,29.95,SE,133,1.0,6.0,87,0.00,,,0.00,0.00,VWS V14.01,2013-10-07 04:40:00,
2013-10-07 00:41:00,65.0,61.0,29.95,SE,131,0.0,6.0,87,0.00,,,0.00,0.00,VWS V14.01,2013-10-07 04:41:00,
2013-10-07 00:45:00,65.0,61.0,29.94,SE,131,0.0,0.0,87,0.00,,,0.00,0.00,VWS V14.01,2013-10-07 04:45:00,
2013-10-07 00:46:00,65.0,61.0,29.94,SE,133,0.0,0.0,87,0.00,,,0.00,0.00,VWS V14.01,2013-10-07 04:46:00,
2013-10-07 00:50:00,65.0,60.7,29.94,SE,133,0.0,1.0,86,0.00,,,0.00,0.00,VWS V14.01,2013-10-07 04:50:00,
2013-10-07 00:51:00,65.0,60.7,29.94,SE,133,0.0,2.0,86,0.00,,,0.00,0.00,VWS V14.01,2013-10-07 04:51:00,
2013-10-07 00:55:00,65.0,60.7,29.94,SE,130,0.0,0.0,86,0.00,,,0.00,0.00,VWS V14.01,2013-10-07 04:55:00,
2013-10-07 00:56:00,65.0,60.7,29.94,SE,130,0.0,0.0,86,0.00,,,0.00,0.00,VWS V14.01,2013-10-07 04:56:00,
2013-10-07 01:00:00,65.0,60.7,29.94,SE,130,0.0,0.0,86,0.00,,,0.00,0.00,VWS V14.01,2013-10-07 05:00:00,
2013-10-07 01:01:00,65.0,60.7,29.94,SE,128,0.0,0.0,86,0.00,,,0.00,0.00,VWS V14.01,2013-10-07 05:01:00,
2013-10-07 01:05:00,65.2,60.9,29.94,SSE,161,0.0,11.0,86,0.00,,,0.00,0.00,VWS V14.01,2013-10-07 05:05:00,
2013-10-07 01:06:00,65.2,60.9,29.94,SSE,152,3.0,3.0,86,0.00,,,0.00,0.00,VWS V14.01,2013-10-07 05:06:00,
2013-10-07 01:10:00,65.3,61.0,29.94,ESE,109,0.0,5.0,86,0.00,,,0.00,0.00,VWS V14.01,2013-10-07 05:10:00,
2013-10-07 01:11:00,65.3,61.0,29.94,SSE,155,2.0,8.0,86,0.00,,,0.00,0.00,VWS V14.01,2013-10-07 05:11:00,
2013-10-07 01:15:00,65.5,60.9,29.93,SSE,154,0.0,5.0,85,0.00,,,0.00,0.00,VWS V14.01,2013-10-07 05:15:00,
2013-10-07 01:16:00,65.5,60.9,29.93,SSE,154,2.0,2.0,85,0.00,,,0.00,0.00,VWS V14.01,2013-10-07 05:16:00,
2013-10-07 01:20:00,65.5,60.9,29.93,SSE,148,0.0,4.0,85,0.00,,,0.00,0.00,VWS V14.01,2013-10-07 05:20:00,
2013-10-07 01:21:00,65.5,60.9,29.93,SSE,148,0.0,0.0,85,0.00,,,0.00,0.00,VWS V14.01,2013-10-07 05:21:00,
2013-10-07 01:25:00,65.6,61.0,29.93,SSE,148,0.0,0.0,85,0.00,,,0.00,0.00,VWS V14.01,2013-10-07 05:25:00,
2013-10-07 01:26:00,65.6,61.0,29.93,SSE,148,1.0,6.0,85,0.00,,,0.00,0.00,VWS V14.01,2013-10-07 05:26:00,
2013-10-07 01:30:00,65.6,61.0,29.93,SE,128,6.0,6.0,85,0.00,,,0.00,0.00,VWS V14.01,2013-10-07 05:30:00,
2013-10-07 01:31:00,65.8,61.2,29.93,SE,128,0.0,6.0,85,0.00,,,0.00,0.00,VWS V14.01,2013-10-07 05:31:00,
2013-10-07 01:35:00,65.8,61.2,29.93,SSE,152,0.0,7.0,85,0.00,,,0.00,0.00,VWS V14.01,2013-10-07 05:35:00,
2013-10-07 01:36:00,65.8,61.2,29.93,SSE,151,5.0,11.0,85,0.00,,,0.00,0.00,VWS V14.01,2013-10-07 05:36:00,
2013-10-07 01:40:00,66.0,61.4,29.93,SE,133,5.0,5.0,85,0.00,,,0.00,0.00,VWS V14.01,2013-10-07 05:40:00,
2013-10-07 01:41:00,66.0,61.4,29.93,SE,131,0.0,5.0,85,0.00,,,0.00,0.00,VWS V14.01,2013-10-07 05:41:00,
2013-10-07 01:45:00,66.0,61.4,29.93,SSE,151,3.0,11.0,85,0.00,,,0.00,0.00,VWS V14.01,2013-10-07 05:45:00,
2013-10-07 01:46:00,66.0,61.4,29.93,SE,140,5.0,13.0,85,0.00,,,0.00,0.00,VWS V14.01,2013-10-07 05:46:00,
2013-10-07 01:50:00,66.1,61.1,29.93,SSE,165,6.0,8.0,84,0.00,,,0.00,0.00,VWS V14.01,2013-10-07 05:50:00,
2013-10-07 01:51:00,66.1,61.1,29.93,South,178,6.0,10.0,84,0.00,,,0.00,0.00,VWS V14.01,2013-10-07 05:51:00,
2013-10-07 01:55:00,66.1,61.1,29.93,South,169,0.0,5.0,84,0.00,,,0.00,0.00,VWS V14.01,2013-10-07 05:55:00,
2013-10-07 01:56:00,66.1,61.1,29.93,SE,145,2.0,7.0,84,0.00,,,0.00,0.00,VWS V14.01,2013-10-07 05:56:00,
2013-10-07 02:00:00,66.1,61.1,29.93,SSE,152,1.0,6.0,84,0.00,,,0.00,0.00,VWS V14.01,2013-10-07 06:00:00,
2013-10-07 02:01:00,66.1,61.1,29.93,SSW,210,0.0,3.0,84,0.00,,,0.00,0.00,VWS V14.01,2013-10-07 06:01:00,
2013-10-07 02:05:00,66.1,60.8,29.93,SSW,213,0.0,1.0,83,0.00,,,0.00,0.00,VWS V14.01,2013-10-07 06:05:00,
2013-10-07 02:06:00,66.1,60.8,29.93,SE,138,7.0,10.0,83,0.00,,,0.00,0.00,VWS V14.01,2013-10-07 06:06:00,
2013-10-07 02:10:00,66.1,60.8,29.93,SSE,168,0.0,5.0,83,0.00,,,0.00,0.00,VWS V14.01,2013-10-07 06:10:00,
2013-10-07 02:11:00,66.1,60.8,29.93,SSE,154,0.0,9.0,83,0.00,,,0.00,0.00,VWS V14.01,2013-10-07 06:11:00,
2013-10-07 02:15:00,66.1,60.8,29.93,South,188,0.0,11.0,83,0.00,,,0.00,0.00,VWS V14.01,2013-10-07 06:15:00,
2013-10-07 02:16:00,66.1,60.8,29.93,SSW,203,4.0,7.0,83,0.00,,,0.00,0.00,VWS V14.01,2013-10-07 06:16:00,
2013-10-07 02:20:00,66.3,61.0,29.93,SSE,164,0.0,7.0,83,0.00,,,0.00,0.00,VWS V14.01,2013-10-07 06:20:00,
2013-10-07 02:21:00,66.3,61.0,29.93,SSE,155,0.0,3.0,83,0.00,,,0.00,0.00,VWS V14.01,2013-10-07 06:21:00,
2013-10-07 02:25:00,66.3,61.0,29.93,SSE,157,6.0,6.0,83,0.00,,,0.00,0.00,VWS V14.01,2013-10-07 06:25:00,
2013-10-07 02:26:00,66.3,61.0,29.93,SSE,155,2.0,6.0,83,0.00,,,0.00,0.00,VWS V14.01,2013-10-07 06:26:00,
2013-10-07 02:30:00,66.3,61.0,29.92,SSE,148,9.0,11.0,83,0.00,,,0.00,0.00,VWS V14.01,2013-10-07 06:30:00,
2013-10-07 02:31:00,66.3,61.0,29.92,SSE,152,5.0,11.0,83,0.00,,,0.00,0.00,VWS V14.01,2013-10-07 06:31:00,
2013-10-07 02:35:00,66.3,61.0,29.92,South,176,6.0,6.0,83,0.00,,,0.00,0.00,VWS V14.01,2013-10-07 06:35:00,
2013-10-07 02:36:00,66.3,61.0,29.92,SSE,162,7.0,8.0,83,0.00,,,0.00,0.00,VWS V14.01,2013-10-07 06:36:00,
2013-10-07 02:40:00,66.3,60.7,29.92,SW,220,0.0,6.0,82,0.00,,,0.00,0.00,VWS V14.01,2013-10-07 06:40:00,
2013-10-07 02:41:00,66.3,60.7,29.92,South,171,5.0,6.0,82,0.00,,,0.00,0.00,VWS V14.01,2013-10-07 06:41:00,
2013-10-07 02:45:00,66.4,60.7,29.91,South,172,3.0,13.0,82,0.00,,,0.00,0.00,VWS V14.01,2013-10-07 06:45:00,
2013-10-07 02:46:00,66.4,60.7,29.91,South,175,2.0,11.0,82,0.00,,,0.00,0.00,VWS V14.01,2013-10-07 06:46:00,
2013-10-07 02:50:00,66.4,60.7,29.91,South,188,5.0,8.0,82,0.00,,,0.00,0.00,VWS V14.01,2013-10-07 06:50:00,
2013-10-07 02:51:00,66.4,60.7,29.91,SSE,160,1.0,8.0,82,0.00,,,0.00,0.00,VWS V14.01,2013-10-07 06:51:00,
2013-10-07 02:55:00,66.4,60.7,29.91,SE,143,1.0,12.0,82,0.00,,,0.00,0.00,VWS V14.01,2013-10-07 06:55:00,
2013-10-07 02:56:00,66.4,60.7,29.91,SSW,192,2.0,8.0,82,0.00,,,0.00,0.00,VWS V14.01,2013-10-07 06:56:00,
2013-10-07 03:00:00,66.1,61.1,29.93,SSE,152,1.0,6.0,84,0.00,,-RA,0.00,0.00,VWS V14.01,2013-10-07 07:00:00,
2013-10-07 03:04:00,66.4,60.7,29.91,South,172,3.0,3.0,82,0.00,,,0.00,0.00,VWS V14.01,2013-10-07 07:04:00,
2013-10-07 03:05:00,66.1,60.8,29.93,SSW,213,0.0,1.0,83,0.00,,-RA,0.00,0.00,VWS V14.01,2013-10-07 07:05:00,
2013-10-07 03:09:00,66.6,60.9,29.91,SE,143,6.0,8.0,82,0.00,,,0.00,0.00,VWS V14.01,2013-10-07 07:09:00,
2013-10-07 03:10:00,66.1,60.8,29.93,SSE,168,0.0,5.0,83,0.00,,-RA,0.00,0.00,VWS V14.01,2013-10-07 07:10:00,
2013-10-07 03:14:00,66.6,60.9,29.90,SSE,161,4.0,7.0,82,0.00,,,0.00,0.00,VWS V14.01,2013-10-07 07:14:00,
2013-10-07 03:15:00,66.1,60.8,29.93,South,188,0.0,11.0,83,0.00,,-RA,0.00,0.00,VWS V14.01,2013-10-07 07:15:00,
2013-10-07 03:19:00,66.6,60.9,29.90,SSE,152,2.0,8.0,82,0.00,,,0.00,0.00,VWS V14.01,2013-10-07 07:19:00,
2013-10-07 03:20:00,66.3,61.0,29.93,SSE,164,0.0,7.0,83,0.00,,-RA,0.00,0.00,VWS V14.01,2013-10-07 07:20:00,
2013-10-07 03:24:00,66.6,60.9,29.90,SSE,154,6.0,13.0,82,0.00,,,0.00,0.00,VWS V14.01,2013-10-07 07:24:00,
2013-10-07 03:25:00,66.3,61.0,29.93,SSE,157,6.0,6.0,83,0.00,,-RA,0.00,0.00,VWS V14.01,2013-10-07 07:25:00,
2013-10-07 03:29:00,66.6,60.9,29.90,SSE,152,0.0,7.0,82,0.00,,,0.00,0.00,VWS V14.01,2013-10-07 07:29:00,
2013-10-07 03:30:00,66.3,61.0,29.92,SSE,148,9.0,11.0,83,0.00,,-RA,0.00,0.00,VWS V14.01,2013-10-07 07:30:00,
2013-10-07 03:34:00,66.6,60.9,29.90,SSE,154,5.0,6.0,82,0.00,,,0.00,0.00,VWS V14.01,2013-10-07 07:34:00,
2013-10-07 03:35:00,66.3,61.0,29.92,South,176,6.0,6.0,83,0.00,,-RA,0.00,0.00,VWS V14.01,2013-10-07 07:35:00,
2013-10-07 03:39:00,66.4,60.7,29.90,SSW,199,2.0,10.0,82,0.00,,,0.00,0.00,VWS V14.01,2013-10-07 07:39:00,
2013-10-07 03:40:00,66.3,60.7,29.92,SW,220,0.0,6.0,82,0.00,,-RA,0.00,0.00,VWS V14.01,2013-10-07 07:40:00,
2013-10-07 03:44:00,66.4,60.7,29.90,SSW,196,0.0,3.0,82,0.00,,,0.00,0.00,VWS V14.01,2013-10-07 07:44:00,
2013-10-07 03:45:00,66.4,60.7,29.91,South,172,3.0,13.0,82,0.00,,-RA,0.00,0.00,VWS V14.01,2013-10-07 07:45:00,
2013-10-07 03:49:00,66.4,61.1,29.90,SSE,160,0.0,11.0,83,0.00,,,0.00,0.00,VWS V14.01,2013-10-07 07:49:00,
2013-10-07 03:50:00,66.4,60.7,29.91,South,188,5.0,8.0,82,0.00,,-RA,0.00,0.00,VWS V14.01,2013-10-07 07:50:00,
2013-10-07 03:54:00,66.4,61.1,29.90,South,184,2.0,8.0,83,0.00,,,0.00,0.00,VWS V14.01,2013-10-07 07:54:00,
2013-10-07 03:55:00,66.4,60.7,29.91,SE,143,1.0,12.0,82,0.00,,-RA,0.00,0.00,VWS V14.01,2013-10-07 07:55:00,
2013-10-07 03:59:00,66.4,61.1,29.89,SSE,148,2.0,4.0,83,0.00,,,0.00,0.00,VWS V14.01,2013-10-07 07:59:00,
2013-10-07 04:00:00,66.4,60.7,29.91,South,179,2.0,7.0,82,0.00,,-RA,0.00,0.00,VWS V14.01,2013-10-07 08:00:00,
2013-10-07 04:04:00,66.4,61.1,29.89,South,178,6.0,10.0,83,0.00,,OVC007,0.00,0.00,VWS V14.01,2013-10-07 08:04:00,
2013-10-07 04:05:00,66.4,60.7,29.91,South,172,3.0,3.0,82,0.00,,-RA,0.00,0.00,VWS V14.01,2013-10-07 08:05:00,
2013-10-07 04:09:00,66.4,61.1,29.89,SE,133,7.0,10.0,83,0.00,,OVC007,0.00,0.00,VWS V14.01,2013-10-07 08:09:00,
2013-10-07 04:10:00,66.4,60.7,29.91,South,184,2.0,8.0,82,0.00,,-RA,0.00,0.00,VWS V14.01,2013-10-07 08:10:00,
2013-10-07 04:14:00,66.4,61.1,29.89,South,178,3.0,10.0,83,0.00,,OVC007,0.00,0.00,VWS V14.01,2013-10-07 08:14:00,
2013-10-07 04:15:00,66.6,60.9,29.90,SSE,161,2.0,7.0,82,0.00,,-RA,0.00,0.00,VWS V14.01,2013-10-07 08:15:00,
2013-10-07 04:19:00,66.4,61.1,29.89,South,178,0.0,7.0,83,0.00,,OVC007,0.00,0.00,VWS V14.01,2013-10-07 08:19:00,
2013-10-07 04:20:00,66.4,60.7,29.90,South,185,3.0,6.0,82,0.00,,-RA,0.00,0.00,VWS V14.01,2013-10-07 08:20:00,
2013-10-07 04:24:00,66.4,61.1,29.89,SSW,199,5.0,8.0,83,0.00,,OVC007,0.00,0.00,VWS V14.01,2013-10-07 08:24:00,
2013-10-07 04:25:00,66.6,60.9,29.90,SSE,154,1.0,13.0,82,0.00,,-RA,0.00,0.00,VWS V14.01,2013-10-07 08:25:00,
2013-10-07 04:29:00,66.4,61.1,29.89,SE,136,0.0,8.0,83,0.00,,OVC007,0.00,0.00,VWS V14.01,2013-10-07 08:29:00,
2013-10-07 04:30:00,66.6,60.9,29.90,SE,136,5.0,7.0,82,0.00,,-RA,0.00,0.00,VWS V14.01,2013-10-07 08:30:00,
2013-10-07 04:34:00,66.4,61.1,29.89,SSE,160,2.0,7.0,83,0.00,,OVC007,0.00,0.00,VWS V14.01,2013-10-07 08:34:00,
2013-10-07 04:35:00,66.4,60.7,29.90,SSW,198,3.0,6.0,82,0.00,,-RA,0.00,0.00,VWS V14.01,2013-10-07 08:35:00,
2013-10-07 04:39:00,66.4,61.1,29.89,WSW,247,7.0,8.0,83,0.00,,OVC007,0.00,0.00,VWS V14.01,2013-10-07 08:39:00,
2013-10-07 04:40:00,66.6,60.9,29.90,SSE,155,3.0,10.0,82,0.00,,-RA,0.00,0.00,VWS V14.01,2013-10-07 08:40:00,
2013-10-07 04:44:00,66.4,61.1,29.88,South,179,4.0,11.0,83,0.00,,OVC007,0.00,0.00,VWS V14.01,2013-10-07 08:44:00,
2013-10-07 04:45:00,66.4,61.1,29.90,SSW,196,0.0,3.0,83,0.00,,-RA,0.00,0.00,VWS V14.01,2013-10-07 08:45:00,
2013-10-07 04:49:00,66.4,61.1,29.88,SSE,151,2.0,5.0,83,0.00,,OVC007,0.00,0.00,VWS V14.01,2013-10-07 08:49:00,
2013-10-07 04:50:00,66.4,61.1,29.90,South,188,0.0,7.0,83,0.00,,-RA,0.00,0.00,VWS V14.01,2013-10-07 08:50:00,
2013-10-07 04:54:00,66.4,61.1,29.88,South,179,5.0,7.0,83,0.00,,OVC007,0.00,0.00,VWS V14.01,2013-10-07 08:54:00,
2013-10-07 04:55:00,66.4,61.1,29.90,South,178,1.0,8.0,83,0.00,,-RA,0.00,0.00,VWS V14.01,2013-10-07 08:55:00,
2013-10-07 04:59:00,66.6,61.3,29.88,SE,128,3.0,5.0,83,0.00,,OVC007,0.00,0.00,VWS V14.01,2013-10-07 08:59:00,
2013-10-07 05:00:00,66.4,61.1,29.89,SSE,147,0.0,4.0,83,0.00,,-RA,0.00,0.00,VWS V14.01,2013-10-07 09:00:00,
2013-10-07 05:04:00,66.6,61.3,29.88,South,191,3.0,10.0,83,0.00,,,0.00,0.00,VWS V14.01,2013-10-07 09:04:00,
2013-10-07 05:05:00,66.4,61.1,29.89,SSE,167,0.0,10.0,83,0.00,,-RA,0.00,0.00,VWS V14.01,2013-10-07 09:05:00,
2013-10-07 05:09:00,66.6,60.9,29.88,SSW,205,1.0,5.0,82,0.00,,,0.00,0.00,VWS V14.01,2013-10-07 09:09:00,
2013-10-07 05:10:00,66.4,61.1,29.89,SSE,167,6.0,12.0,83,0.00,,-RA,0.00,0.00,VWS V14.01,2013-10-07 09:10:00,
2013-10-07 05:14:00,66.8,61.1,29.88,SSW,205,2.0,5.0,82,0.00,,,0.00,0.00,VWS V14.01,2013-10-07 09:14:00,
2013-10-07 05:15:00,66.4,61.1,29.89,South,175,1.0,10.0,83,0.00,,-RA,0.00,0.00,VWS V14.01,2013-10-07 09:15:00,
2013-10-07 05:19:00,66.8,61.1,29.88,South,182,3.0,9.0,82,0.00,,,0.00,0.00,VWS V14.01,2013-10-07 09:19:00,
2013-10-07 05:20:00,66.4,61.1,29.89,SSE,151,1.0,7.0,83,0.00,,-RA,0.00,0.00,VWS V14.01,2013-10-07 09:20:00,
2013-10-07 05:24:00,66.8,61.1,29.88,ESE,113,1.0,6.0,82,0.00,,,0.00,0.00,VWS V14.01,2013-10-07 09:24:00,
2013-10-07 05:25:00,66.4,61.1,29.89,SSE,168,2.0,8.0,83,0.00,,-RA,0.00,0.00,VWS V14.01,2013-10-07 09:25:00,
2013-10-07 05:29:00,66.8,60.8,29.88,WSW,239,1.0,5.0,81,0.00,,,0.00,0.00,VWS V14.01,2013-10-07 09:29:00,
2013-10-07 05:30:00,66.4,61.1,29.89,South,185,7.0,7.0,83,0.00,,-RA,0.00,0.00,VWS V14.01,2013-10-07 09:30:00,
2013-10-07 05:34:00,66.9,60.9,29.88,South,178,2.0,5.0,81,0.00,,,0.00,0.00,VWS V14.01,2013-10-07 09:34:00,
2013-10-07 05:35:00,66.4,61.1,29.89,South,169,1.0,7.0,83,0.00,,-RA,0.00,0.00,VWS V14.01,2013-10-07 09:35:00,
2013-10-07 05:39:00,66.9,60.9,29.88,South,178,5.0,8.0,81,0.00,,,0.00,0.00,VWS V14.01,2013-10-07 09:39:00,
2013-10-07 05:40:00,66.4,61.1,29.89,SSE,162,3.0,8.0,83,0.00,,-RA,0.00,0.00,VWS V14.01,2013-10-07 09:40:00,
2013-10-07 05:44:00,66.9,60.9,29.87,SW,224,7.0,10.0,81,0.00,,,0.00,0.00,VWS V14.01,2013-10-07 09:44:00,
2013-10-07 05:45:00,66.4,61.1,29.88,South,179,2.0,11.0,83,0.00,,-RA,0.00,0.00,VWS V14.01,2013-10-07 09:45:00,
2013-10-07 05:49:00,66.9,60.9,29.87,SSW,193,1.0,11.0,81,0.00,,,0.00,0.00,VWS V14.01,2013-10-07 09:49:00,
2013-10-07 05:50:00,66.4,61.1,29.88,SSE,151,1.0,5.0,83,0.00,,-RA,0.00,0.00,VWS V14.01,2013-10-07 09:50:00,
2013-10-07 05:54:00,66.9,60.9,29.87,SSW,206,4.0,13.0,81,0.00,,,0.00,0.00,VWS V14.01,2013-10-07 09:54:00,
2013-10-07 05:55:00,66.4,61.1,29.88,SSE,167,5.0,8.0,83,0.00,,-RA,0.00,0.00,VWS V14.01,2013-10-07 09:55:00,
2013-10-07 05:59:00,66.9,60.9,29.87,South,171,0.0,3.0,81,0.00,,,0.00,0.00,VWS V14.01,2013-10-07 09:59:00,
2013-10-07 06:00:00,66.6,61.3,29.88,SSE,158,5.0,6.0,83,0.00,,-RA,0.00,0.00,VWS V14.01,2013-10-07 10:00:00,
2013-10-07 06:04:00,66.9,60.9,29.87,SE,137,5.0,10.0,81,0.00,,,0.00,0.00,VWS V14.01,2013-10-07 10:04:00,
2013-10-07 06:05:00,66.6,61.3,29.88,South,184,7.0,11.0,83,0.00,,-RA,0.00,0.00,VWS V14.01,2013-10-07 10:05:00,
2013-10-07 06:09:00,66.9,60.9,29.87,South,185,5.0,5.0,81,0.00,,,0.00,0.00,VWS V14.01,2013-10-07 10:09:00,
2013-10-07 06:10:00,66.6,60.9,29.88,SSW,199,3.0,5.0,82,0.00,,-RA,0.00,0.00,VWS V14.01,2013-10-07 10:10:00,
2013-10-07 06:14:00,66.9,60.9,29.86,SSE,148,0.0,10.0,81,0.00,,,0.00,0.00,VWS V14.01,2013-10-07 10:14:00,
2013-10-07 06:15:00,66.8,61.1,29.88,SSE,150,2.0,5.0,82,0.00,,-RA,0.00,0.00,VWS V14.01,2013-10-07 10:15:00,
2013-10-07 06:19:00,66.9,60.9,29.86,South,175,2.0,3.0,81,0.00,,,0.00,0.00,VWS V14.01,2013-10-07 10:19:00,
2013-10-07 06:20:00,66.8,61.1,29.88,South,182,0.0,9.0,82,0.00,,-RA,0.00,0.00,VWS V14.01,2013-10-07 10:20:00,
2013-10-07 06:24:00,66.9,61.2,29.86,SSE,158,2.0,6.0,82,0.00,,,0.00,0.00,VWS V14.01,2013-10-07 10:24:00,
2013-10-07 06:25:00,66.8,61.1,29.88,South,176,5.0,6.0,82,0.00,,-RA,0.00,0.00,VWS V14.01,2013-10-07 10:25:00,
2013-10-07 06:29:00,66.9,61.2,29.86,SSE,151,0.0,7.0,82,0.00,,,0.00,0.00,VWS V14.01,2013-10-07 10:29:00,
2013-10-07 06:30:00,66.9,60.9,29.88,WSW,241,6.0,6.0,81,0.00,,-RA,0.00,0.00,VWS V14.01,2013-10-07 10:30:00,
2013-10-07 06:34:00,66.9,61.2,29.86,SSE,155,0.0,5.0,82,0.00,,,0.00,0.00,VWS V14.01,2013-10-07 10:34:00,
2013-10-07 06:35:00,66.9,60.9,29.88,South,181,2.0,6.0,81,0.00,,-RA,0.00,0.00,VWS V14.01,2013-10-07 10:35:00,
2013-10-07 06:39:00,66.9,61.2,29.86,SE,124,2.0,11.0,82,0.00,,,0.00,0.00,VWS V14.01,2013-10-07 10:39:00,
2013-10-07 06:40:00,66.9,60.9,29.88,SSW,213,6.0,8.0,81,0.00,,-RA,0.00,0.00,VWS V14.01,2013-10-07 10:40:00,
2013-10-07 06:44:00,66.9,61.2,29.86,South,176,6.0,8.0,82,0.00,,,0.00,0.00,VWS V14.01,2013-10-07 10:44:00,
2013-10-07 06:45:00,66.9,60.9,29.87,South,191,3.0,10.0,81,0.00,,-RA,0.00,0.00,VWS V14.01,2013-10-07 10:45:00,
2013-10-07 06:49:00,66.9,61.2,29.86,SSE,162,5.0,18.0,82,0.00,,,0.00,0.00,VWS V14.01,2013-10-07 10:49:00,
2013-10-07 06:50:00,66.9,60.9,29.87,SSW,203,9.0,12.0,81,0.00,,-RA,0.00,0.00,VWS V14.01,2013-10-07 10:50:00,
2013-10-07 06:54:00,66.9,61.2,29.86,SSE,157,5.0,12.0,82,0.00,,,0.00,0.00,VWS V14.01,2013-10-07 10:54:00,
2013-10-07 06:55:00,66.9,60.9,29.87,SSW,199,5.0,13.0,81,0.00,,-RA,0.00,0.00,VWS V14.01,2013-10-07 10:55:00,
2013-10-07 06:59:00,66.9,61.2,29.86,SSE,154,0.0,6.0,82,0.00,,,0.00,0.00,VWS V14.01,2013-10-07 10:59:00,
2013-10-07 07:00:00,66.9,60.9,29.87,SE,130,1.0,6.0,81,0.00,,-RA,0.00,0.00,VWS V14.01,2013-10-07 11:00:00,
2013-10-07 07:04:00,66.9,61.2,29.86,SSE,164,1.0,6.0,82,0.00,,,0.00,0.00,VWS V14.01,2013-10-07 11:04:00,
2013-10-07 07:05:00,66.9,60.9,29.87,SE,138,3.0,10.0,81,0.00,,-RA,0.00,0.00,VWS V14.01,2013-10-07 11:05:00,
2013-10-07 07:09:00,66.9,61.2,29.86,South,175,6.0,10.0,82,0.00,,,0.00,0.00,VWS V14.01,2013-10-07 11:09:00,
2013-10-07 07:10:00,66.9,60.9,29.87,South,184,1.0,5.0,81,0.00,,-RA,0.00,0.00,VWS V14.01,2013-10-07 11:10:00,
2013-10-07 07:14:00,67.1,61.1,29.86,SE,143,11.0,11.0,81,0.00,,,0.00,0.00,VWS V14.01,2013-10-07 11:14:00,
2013-10-07 07:15:00,66.9,60.9,29.86,SSE,148,0.0,10.0,81,0.00,,-RA,0.00,0.00,VWS V14.01,2013-10-07 11:15:00,
2013-10-07 07:19:00,67.1,61.1,29.86,SSE,165,2.0,8.0,81,0.00,,,0.00,0.00,VWS V14.01,2013-10-07 11:19:00,
2013-10-07 07:20:00,66.9,60.9,29.86,SSE,150,1.0,5.0,81,0.00,,-RA,0.00,0.00,VWS V14.01,2013-10-07 11:20:00,
2013-10-07 07:24:00,67.1,61.1,29.86,SW,219,0.0,11.0,81,0.00,,,0.00,0.00,VWS V14.01,2013-10-07 11:24:00,
2013-10-07 07:25:00,66.9,61.2,29.86,SSW,198,2.0,6.0,82,0.00,,-RA,0.00,0.00,VWS V14.01,2013-10-07 11:25:00,
2013-10-07 07:29:00,67.3,61.3,29.85,SE,137,0.0,7.0,81,0.00,,,0.00,9.00,VWS V14.01,2013-10-07 11:29:00,
2013-10-07 07:30:00,66.9,61.2,29.86,SSE,151,3.0,3.0,82,0.00,,-RA,0.00,0.00,VWS V14.01,2013-10-07 11:30:00,
2013-10-07 07:34:00,67.3,61.3,29.85,SSE,148,6.0,11.0,81,0.00,,,0.00,5.00,VWS V14.01,2013-10-07 11:34:00,
2013-10-07 07:35:00,66.9,61.2,29.86,SSW,208,2.0,7.0,82,0.00,,-RA,0.00,0.00,VWS V14.01,2013-10-07 11:35:00,
2013-10-07 07:39:00,67.4,61.0,29.85,SSE,160,6.0,10.0,80,0.00,,,0.00,5.00,VWS V14.01,2013-10-07 11:39:00,
2013-10-07 07:40:00,66.8,61.1,29.86,WSW,248,2.0,7.0,82,0.00,,-RA,0.00,0.00,VWS V14.01,2013-10-07 11:40:00,
2013-10-07 07:44:00,67.4,61.0,29.85,SW,222,8.0,17.0,80,0.00,,,0.00,7.00,VWS V14.01,2013-10-07 11:44:00,
2013-10-07 07:45:00,66.9,61.2,29.86,SSE,154,1.0,9.0,82,0.00,,-RA,0.00,0.00,VWS V14.01,2013-10-07 11:45:00,
2013-10-07 07:49:00,67.6,61.2,29.85,SSE,151,2.0,13.0,80,0.00,,,0.00,11.00,VWS V14.01,2013-10-07 11:49:00,
2013-10-07 07:50:00,66.9,61.2,29.86,SW,232,2.0,18.0,82,0.00,,-RA,0.00,0.00,VWS V14.01,2013-10-07 11:50:00,
2013-10-07 07:54:00,67.6,61.2,29.85,SW,227,0.0,4.0,80,0.00,,,0.00,12.00,VWS V14.01,2013-10-07 11:54:00,
2013-10-07 07:55:00,66.9,61.2,29.86,SE,128,6.0,12.0,82,0.00,,-RA,0.00,0.00,VWS V14.01,2013-10-07 11:55:00,
2013-10-07 07:59:00,67.6,61.2,29.84,SSE,155,5.0,10.0,80,0.00,,,0.00,12.00,VWS V14.01,2013-10-07 11:59:00,
2013-10-07 08:00:00,66.9,61.2,29.86,SSE,161,0.0,6.0,82,0.00,,-RA,0.00,0.00,VWS V14.01,2013-10-07 12:00:00,
2013-10-07 08:04:00,67.6,61.2,29.84,South,184,2.0,12.0,80,0.00,,,0.00,19.00,VWS V14.01,2013-10-07 12:04:00,
2013-10-07 08:05:00,66.9,61.2,29.86,SE,145,3.0,5.0,82,0.00,,-RA,0.00,0.00,VWS V14.01,2013-10-07 12:05:00,
2013-10-07 08:09:00,67.8,61.4,29.84,SE,141,1.0,12.0,80,0.00,,,0.00,21.00,VWS V14.01,2013-10-07 12:09:00,
2013-10-07 08:10:00,66.9,60.9,29.86,SE,143,2.0,11.0,81,0.00,,-RA,0.00,0.00,VWS V14.01,2013-10-07 12:10:00,
2013-10-07 08:14:00,67.8,61.4,29.84,SSE,160,7.0,7.0,80,0.00,,,0.00,44.00,VWS V14.01,2013-10-07 12:14:00,
2013-10-07 08:15:00,66.9,60.9,29.86,SSW,205,5.0,16.0,81,0.00,,-RA,0.00,0.00,VWS V14.01,2013-10-07 12:15:00,
2013-10-07 08:19:00,67.9,61.5,29.84,ESE,121,3.0,6.0,80,0.00,,,0.00,33.00,VWS V14.01,2013-10-07 12:19:00,
2013-10-07 08:20:00,67.1,61.1,29.86,South,182,1.0,6.0,81,0.00,,-RA,0.00,0.00,VWS V14.01,2013-10-07 12:20:00,
2013-10-07 08:24:00,67.9,61.5,29.84,SE,140,2.0,8.0,80,0.00,,,0.00,51.00,VWS V14.01,2013-10-07 12:24:00,
2013-10-07 08:25:00,67.3,61.3,29.86,South,172,0.0,11.0,81,0.00,,-RA,0.00,0.00,VWS V14.01,2013-10-07 12:25:00,
2013-10-07 08:29:00,68.1,61.7,29.83,SE,141,0.0,5.0,80,0.00,,,0.00,63.00,VWS V14.01,2013-10-07 12:29:00,
2013-10-07 08:30:00,67.3,61.3,29.85,SE,137,0.0,7.0,81,0.00,,-RA,0.00,9.00,VWS V14.01,2013-10-07 12:30:00,
2013-10-07 08:34:00,68.3,61.9,29.83,SE,138,6.0,6.0,80,0.00,,,0.00,104.00,VWS V14.01,2013-10-07 12:34:00,
2013-10-07 08:35:00,67.4,61.4,29.85,SE,143,3.0,8.0,81,0.00,,-RA,0.00,5.00,VWS V14.01,2013-10-07 12:35:00,
2013-10-07 08:39:00,68.4,61.6,29.83,ESE,116,0.0,7.0,79,0.00,,,0.00,44.00,VWS V14.01,2013-10-07 12:39:00,
2013-10-07 08:40:00,67.4,61.0,29.85,SSE,168,1.0,10.0,80,0.00,,-RA,0.00,5.00,VWS V14.01,2013-10-07 12:40:00,
2013-10-07 08:44:00,68.4,61.6,29.83,South,184,0.0,10.0,79,0.00,,,0.00,42.00,VWS V14.01,2013-10-07 12:44:00,
2013-10-07 08:45:00,67.4,61.0,29.85,SSW,212,3.0,8.0,80,0.00,,-RA,0.00,7.00,VWS V14.01,2013-10-07 12:45:00,
2013-10-07 08:49:00,68.4,61.6,29.83,South,174,0.0,7.0,79,0.00,,,0.00,51.00,VWS V14.01,2013-10-07 12:49:00,
2013-10-07 08:50:00,67.6,61.2,29.85,SE,143,1.0,12.0,80,0.00,,-RA,0.00,19.00,VWS V14.01,2013-10-07 12:50:00,
2013-10-07 08:54:00,68.4,61.6,29.83,SSE,157,4.0,12.0,79,0.00,,,0.00,148.00,VWS V14.01,2013-10-07 12:54:00,
2013-10-07 08:55:00,67.6,61.2,29.85,SW,227,3.0,4.0,80,0.00,,-RA,0.00,12.00,VWS V14.01,2013-10-07 12:55:00,
2013-10-07 08:59:00,68.6,61.8,29.83,SE,143,1.0,11.0,79,0.00,,,0.00,134.00,VWS V14.01,2013-10-07 12:59:00,
2013-10-07 09:00:00,67.6,61.2,29.84,SSW,195,3.0,10.0,80,0.00,,-RA,0.00,12.00,VWS V14.01,2013-10-07 13:00:00,
2013-10-07 09:04:00,68.9,61.8,29.83,SSE,147,0.0,5.0,78,0.00,,OVC015,0.00,208.00,VWS V14.01,2013-10-07 13:04:00,
2013-10-07 09:05:00,67.6,61.2,29.84,South,184,0.0,9.0,80,0.00,,-RA,0.00,19.00,VWS V14.01,2013-10-07 13:05:00,
2013-10-07 09:09:00,68.9,61.4,29.83,SSE,161,3.0,11.0,77,0.00,,OVC015,0.00,123.00,VWS V14.01,2013-10-07 13:09:00,
2013-10-07 09:10:00,67.8,61.4,29.84,South,185,4.0,6.0,80,0.00,,-RA,0.00,21.00,VWS V14.01,2013-10-07 13:10:00,
2013-10-07 09:14:00,69.1,61.6,29.82,SSE,165,5.0,5.0,77,0.00,,OVC015,0.00,113.00,VWS V14.01,2013-10-07 13:14:00,
2013-10-07 09:15:00,67.8,61.4,29.84,WSW,237,4.0,7.0,80,0.00,,-RA,0.00,48.00,VWS V14.01,2013-10-07 13:15:00,
2013-10-07 09:19:00,68.9,61.0,29.82,South,176,10.0,16.0,76,0.00,,OVC015,0.00,91.00,VWS V14.01,2013-10-07 13:19:00,
2013-10-07 09:20:00,67.9,61.5,29.84,SE,144,6.0,6.0,80,0.00,,-RA,0.00,33.00,VWS V14.01,2013-10-07 13:20:00,
2013-10-07 09:24:00,69.1,61.2,29.82,SE,144,0.0,10.0,76,0.00,,OVC015,0.00,88.00,VWS V14.01,2013-10-07 13:24:00,
2013-10-07 09:25:00,68.1,61.7,29.84,SE,140,2.0,8.0,80,0.00,,-RA,0.00,51.00,VWS V14.01,2013-10-07 13:25:00,
2013-10-07 09:29:00,69.1,61.6,29.81,SSE,168,0.0,11.0,77,0.00,,OVC015,0.00,95.00,VWS V14.01,2013-10-07 13:29:00,
2013-10-07 09:30:00,68.1,61.7,29.83,South,176,6.0,10.0,80,0.00,,-RA,0.00,69.00,VWS V14.01,2013-10-07 13:30:00,
2013-10-07 09:34:00,69.1,61.2,29.81,SE,144,5.0,16.0,76,0.00,,OVC015,0.00,99.00,VWS V14.01,2013-10-07 13:34:00,
2013-10-07 09:35:00,68.3,61.9,29.83,SSE,161,7.0,10.0,80,0.00,,-RA,0.00,106.00,VWS V14.01,2013-10-07 13:35:00,
2013-10-07 09:39:00,69.3,61.8,29.81,SSE,161,5.0,6.0,77,0.00,,OVC015,0.00,111.00,VWS V14.01,2013-10-07 13:39:00,
2013-10-07 09:40:00,68.4,61.6,29.83,ESE,116,0.0,3.0,79,0.00,,-RA,0.00,42.00,VWS V14.01,2013-10-07 13:40:00,
2013-10-07 09:44:00,69.3,61.4,29.81,SE,140,6.0,10.0,76,0.00,,OVC015,0.00,130.00,VWS V14.01,2013-10-07 13:44:00,
2013-10-07 09:45:00,68.4,61.6,29.83,ESE,102,5.0,10.0,79,0.00,,-RA,0.00,49.00,VWS V14.01,2013-10-07 13:45:00,
2013-10-07 09:49:00,69.4,61.5,29.81,SE,141,2.0,10.0,76,0.00,,OVC015,0.00,176.00,VWS V14.01,2013-10-07 13:49:00,
2013-10-07 09:50:00,68.4,61.6,29.83,SSE,151,2.0,5.0,79,0.00,,-RA,0.00,60.00,VWS V14.01,2013-10-07 13:50:00,
2013-10-07 09:54:00,69.6,61.3,29.81,East,97,2.0,14.0,75,0.00,,OVC015,0.00,179.00,VWS V14.01,2013-10-07 13:54:00,
2013-10-07 09:55:00,68.4,61.6,29.83,SSW,202,3.0,8.0,79,0.00,,-RA,0.00,162.00,VWS V14.01,2013-10-07 13:55:00,
2013-10-07 09:59:00,69.9,61.6,29.81,ENE,62,5.0,13.0,75,0.00,,OVC015,0.00,211.00,VWS V14.01,2013-10-07 13:59:00,
2013-10-07 10:00:00,68.6,61.8,29.83,SSE,155,2.0,6.0,79,0.00,,-RA,0.00,160.00,VWS V14.01,2013-10-07 14:00:00,
2013-10-07 10:04:00,69.9,62.0,29.80,South,176,1.0,11.0,76,0.00,,-RA,0.00,162.00,VWS V14.01,2013-10-07 14:04:00,
2013-10-07 10:05:00,68.9,61.8,29.83,South,169,5.0,11.0,78,0.00,,-RA,0.00,218.00,VWS V14.01,2013-10-07 14:05:00,
2013-10-07 10:09:00,69.6,62.1,29.80,SE,126,1.0,13.0,77,0.00,,-RA,0.00,91.00,VWS V14.01,2013-10-07 14:09:00,
2013-10-07 10:10:00,68.9,61.4,29.83,SSE,165,6.0,11.0,77,0.00,,-RA,0.00,121.00,VWS V14.01,2013-10-07 14:10:00,
2013-10-07 10:14:00,69.3,62.2,29.80,SE,137,3.0,7.0,78,0.02,,-RA,0.02,174.00,VWS V14.01,2013-10-07 14:14:00,
2013-10-07 10:15:00,69.1,61.6,29.82,SSE,147,19.0,19.0,77,0.00,,-RA,0.00,113.00,VWS V14.01,2013-10-07 14:15:00,
2013-10-07 10:19:00,68.9,62.1,29.79,SSE,147,6.0,10.0,79,0.03,,-RA,0.03,86.00,VWS V14.01,2013-10-07 14:19:00,
2013-10-07 10:20:00,68.9,61.0,29.82,SSE,167,1.0,16.0,76,0.00,,-RA,0.00,95.00,VWS V14.01,2013-10-07 14:20:00,
2013-10-07 10:24:00,68.8,62.4,29.79,SE,140,0.0,5.0,80,0.03,,-RA,0.03,135.00,VWS V14.01,2013-10-07 14:24:00,
2013-10-07 10:25:00,69.1,61.2,29.82,South,171,5.0,10.0,76,0.00,,-RA,0.00,97.00,VWS V14.01,2013-10-07 14:25:00,
2013-10-07 10:29:00,68.6,62.5,29.79,SSE,158,5.0,11.0,81,0.04,,-RA,0.04,99.00,VWS V14.01,2013-10-07 14:29:00,
2013-10-07 10:30:00,69.1,61.6,29.81,SSE,165,1.0,11.0,77,0.00,,-RA,0.00,102.00,VWS V14.01,2013-10-07 14:30:00,
2013-10-07 10:34:00,68.4,62.3,29.79,South,181,0.0,8.0,81,0.05,,-RA,0.05,42.00,VWS V14.01,2013-10-07 14:34:00,
2013-10-07 10:35:00,69.1,61.2,29.81,SSE,150,9.0,16.0,76,0.00,,-RA,0.00,93.00,VWS V14.01,2013-10-07 14:35:00,
2013-10-07 10:39:00,68.4,62.7,29.79,SSE,152,10.0,10.0,82,0.06,,-RA,0.06,70.00,VWS V14.01,2013-10-07 14:39:00,
2013-10-07 10:40:00,69.3,61.4,29.81,SSE,154,0.0,6.0,76,0.00,,-RA,0.00,118.00,VWS V14.01,2013-10-07 14:40:00,
2013-10-07 10:44:00,68.4,62.7,29.79,SSE,152,5.0,8.0,82,0.07,,-RA,0.07,49.00,VWS V14.01,2013-10-07 14:44:00,
2013-10-07 10:45:00,69.3,61.4,29.81,SE,140,10.0,10.0,76,0.00,,-RA,0.00,135.00,VWS V14.01,2013-10-07 14:45:00,
2013-10-07 10:49:00,68.4,63.0,29.78,SSE,165,6.0,14.0,83,0.08,,-RA,0.08,70.00,VWS V14.01,2013-10-07 14:49:00,
2013-10-07 10:50:00,69.4,61.5,29.81,SE,141,0.0,5.0,76,0.00,,-RA,0.00,181.00,VWS V14.01,2013-10-07 14:50:00,
2013-10-07 10:54:00,68.4,63.0,29.78,SSE,150,0.0,7.0,83,0.09,,-RA,0.09,76.00,VWS V14.01,2013-10-07 14:54:00,
2013-10-07 10:55:00,69.6,61.3,29.81,WSW,239,6.0,11.0,75,0.00,,-RA,0.00,188.00,VWS V14.01,2013-10-07 14:55:00,
2013-10-07 10:59:00,68.4,63.0,29.78,SSE,160,5.0,10.0,83,0.10,,-RA,0.10,63.00,VWS V14.01,2013-10-07 14:59:00,
2013-10-07 11:00:00,69.9,61.6,29.80,SSE,151,10.0,13.0,75,0.00,,-RA,0.00,192.00,VWS V14.01,2013-10-07 15:00:00,
2013-10-07 11:04:00,68.4,63.0,29.78,SSE,168,4.0,12.0,83,0.11,,-RA,0.11,83.00,VWS V14.01,2013-10-07 15:04:00,
2013-10-07 11:05:00,69.9,61.6,29.80,South,184,5.0,12.0,75,0.00,,-RA,0.00,144.00,VWS V14.01,2013-10-07 15:05:00,
2013-10-07 11:09:00,68.4,63.4,29.78,SSE,168,2.0,10.0,84,0.13,,-RA,0.13,70.00,VWS V14.01,2013-10-07 15:09:00,
2013-10-07 11:10:00,69.6,62.1,29.80,SSE,148,3.0,8.0,77,0.00,,-RA,0.00,90.00,VWS V14.01,2013-10-07 15:10:00,
2013-10-07 11:14:00,68.4,63.4,29.78,South,181,2.0,8.0,84,0.14,,-RA,0.14,42.00,VWS V14.01,2013-10-07 15:14:00,
2013-10-07 11:15:00,69.1,62.0,29.79,SSE,147,5.0,13.0,78,0.02,,-RA,0.02,178.00,VWS V14.01,2013-10-07 15:15:00,
2013-10-07 11:19:00,68.4,63.4,29.77,SE,144,12.0,12.0,84,0.12,,-RA,0.14,39.00,VWS V14.01,2013-10-07 15:19:00,
2013-10-07 11:20:00,68.9,62.1,29.79,SE,141,7.0,10.0,79,0.03,,-RA,0.03,102.00,VWS V14.01,2013-10-07 15:20:00,
2013-10-07 11:24:00,68.3,63.3,29.77,SSE,157,0.0,3.0,84,0.12,,-RA,0.15,23.00,VWS V14.01,2013-10-07 15:24:00,
2013-10-07 11:25:00,68.8,62.7,29.79,SSE,148,2.0,5.0,81,0.03,,-RA,0.03,116.00,VWS V14.01,2013-10-07 15:25:00,
2013-10-07 11:29:00,68.3,63.6,29.77,SSE,168,1.0,12.0,85,0.12,,-RA,0.15,67.00,VWS V14.01,2013-10-07 15:29:00,
2013-10-07 11:30:00,68.6,62.5,29.79,SSE,151,5.0,11.0,81,0.05,,-RA,0.05,90.00,VWS V14.01,2013-10-07 15:30:00,
2013-10-07 11:34:00,68.3,63.6,29.76,South,188,5.0,10.0,85,0.11,,-RA,0.16,44.00,VWS V14.01,2013-10-07 15:34:00,
2013-10-07 11:35:00,68.4,62.3,29.79,SE,136,11.0,11.0,81,0.05,,-RA,0.05,40.00,VWS V14.01,2013-10-07 15:35:00,
2013-10-07 11:39:00,68.4,63.7,29.76,South,172,3.0,13.0,85,0.11,,-RA,0.16,69.00,VWS V14.01,2013-10-07 15:39:00,
2013-10-07 11:40:00,68.4,62.7,29.79,SSE,155,0.0,10.0,82,0.07,,-RA,0.07,62.00,VWS V14.01,2013-10-07 15:40:00,
2013-10-07 11:44:00,68.4,63.7,29.76,South,169,6.0,11.0,85,0.09,,-RA,0.16,81.00,VWS V14.01,2013-10-07 15:44:00,
2013-10-07 11:45:00,68.4,62.7,29.78,SSE,162,5.0,8.0,82,0.08,,-RA,0.08,74.00,VWS V14.01,2013-10-07 15:45:00,
2013-10-07 11:49:00,68.4,63.7,29.76,South,181,8.0,13.0,85,0.08,,-RA,0.16,99.00,VWS V14.01,2013-10-07 15:49:00,
2013-10-07 11:50:00,68.4,63.0,29.78,SSW,202,3.0,14.0,83,0.09,,-RA,0.09,62.00,VWS V14.01,2013-10-07 15:50:00,
2013-10-07 11:54:00,68.6,63.9,29.76,SE,131,4.0,11.0,85,0.07,,-RA,0.16,62.00,VWS V14.01,2013-10-07 15:54:00,
2013-10-07 11:55:00,68.4,63.0,29.78,SSE,162,2.0,3.0,83,0.09,,-RA,0.09,77.00,VWS V14.01,2013-10-07 15:55:00,
2013-10-07 11:59:00,68.6,63.9,29.76,WSW,246,6.0,17.0,85,0.07,,-RA,0.16,55.00,VWS V14.01,2013-10-07 15:59:00,
2013-10-07 12:00:00,68.4,63.0,29.78,SSE,160,0.0,10.0,83,0.10,,-RA,0.10,58.00,VWS V14.01,2013-10-07 16:00:00,
2013-10-07 12:04:00,68.6,63.9,29.75,South,182,2.0,8.0,85,0.08,,-RA,0.18,70.00,VWS V14.01,2013-10-07 16:04:00,
2013-10-07 12:05:00,68.4,63.4,29.78,SW,215,1.0,7.0,84,0.12,,-RA,0.12,90.00,VWS V14.01,2013-10-07 16:05:00,
2013-10-07 12:09:00,68.8,64.1,29.75,South,174,2.0,5.0,85,0.06,,-RA,0.18,86.00,VWS V14.01,2013-10-07 16:09:00,
2013-10-07 12:10:00,68.4,63.4,29.78,SSE,157,2.0,10.0,84,0.13,,-RA,0.13,69.00,VWS V14.01,2013-10-07 16:10:00,
2013-10-07 12:14:00,68.9,64.2,29.75,SSE,167,10.0,13.0,85,0.05,,-RA,0.18,106.00,VWS V14.01,2013-10-07 16:14:00,
2013-10-07 12:15:00,68.4,63.4,29.77,SSE,162,5.0,8.0,84,0.14,,-RA,0.14,46.00,VWS V14.01,2013-10-07 16:15:00,
2013-10-07 12:19:00,69.1,64.4,29.75,SSE,157,7.0,13.0,85,0.04,,-RA,0.18,153.00,VWS V14.01,2013-10-07 16:19:00,
2013-10-07 12:20:00,68.3,63.3,29.77,SW,230,2.0,12.0,84,0.13,,-RA,0.15,30.00,VWS V14.01,2013-10-07 16:20:00,
2013-10-07 12:24:00,69.1,64.4,29.75,SSW,208,0.0,7.0,85,0.03,,-RA,0.18,104.00,VWS V14.01,2013-10-07 16:24:00,
2013-10-07 12:25:00,68.3,63.3,29.77,South,189,7.0,10.0,84,0.12,,-RA,0.15,25.00,VWS V14.01,2013-10-07 16:25:00,
2013-10-07 12:29:00,69.1,64.4,29.75,SSE,147,21.0,21.0,85,0.04,,-RA,0.19,183.00,VWS V14.01,2013-10-07 16:29:00,
2013-10-07 12:30:00,68.3,63.6,29.76,SE,133,6.0,13.0,85,0.12,,-RA,0.15,53.00,VWS V14.01,2013-10-07 16:30:00,
2013-10-07 12:34:00,69.1,64.4,29.73,South,182,4.0,13.0,85,0.04,,-RA,0.19,107.00,VWS V14.01,2013-10-07 16:34:00,
2013-10-07 12:35:00,68.4,63.7,29.76,SE,143,4.0,10.0,85,0.11,,-RA,0.16,33.00,VWS V14.01,2013-10-07 16:35:00,
2013-10-07 12:39:00,69.3,64.6,29.73,South,174,7.0,16.0,85,0.03,,-RA,0.19,109.00,VWS V14.01,2013-10-07 16:39:00,
2013-10-07 12:40:00,68.4,63.7,29.76,SSE,160,15.0,15.0,85,0.11,,-RA,0.16,83.00,VWS V14.01,2013-10-07 16:40:00,
2013-10-07 12:44:00,69.3,64.6,29.73,SSE,152,7.0,16.0,85,0.03,,-RA,0.19,86.00,VWS V14.01,2013-10-07 16:44:00,
2013-10-07 12:45:00,68.3,63.6,29.76,SSW,212,2.0,12.0,85,0.09,,-RA,0.16,77.00,VWS V14.01,2013-10-07 16:45:00,
2013-10-07 12:49:00,69.4,64.7,29.72,South,172,3.0,16.0,85,0.03,,-RA,0.19,128.00,VWS V14.01,2013-10-07 16:49:00,
2013-10-07 12:50:00,68.4,63.7,29.76,SSE,165,4.0,14.0,85,0.08,,-RA,0.16,84.00,VWS V14.01,2013-10-07 16:50:00,
2013-10-07 12:54:00,69.6,64.9,29.72,SSE,157,5.0,16.0,85,0.03,,-RA,0.19,86.00,VWS V14.01,2013-10-07 16:54:00,
2013-10-07 12:55:00,68.6,63.9,29.76,SSE,152,1.0,11.0,85,0.07,,-RA,0.16,62.00,VWS V14.01,2013-10-07 16:55:00,
2013-10-07 12:59:00,69.8,64.8,29.72,South,174,7.0,11.0,84,0.03,,-RA,0.19,99.00,VWS V14.01,2013-10-07 16:59:00,
2013-10-07 13:00:00,68.6,63.9,29.75,South,178,3.0,7.0,85,0.07,,-RA,0.16,74.00,VWS V14.01,2013-10-07 17:00:00,
2013-10-07 13:04:00,69.9,64.5,29.71,South,186,6.0,26.0,83,0.03,,OVC028,0.19,157.00,VWS V14.01,2013-10-07 17:04:00,
2013-10-07 13:05:00,68.8,64.1,29.75,SSE,155,8.0,8.0,85,0.08,,-RA,0.18,77.00,VWS V14.01,2013-10-07 17:05:00,
2013-10-07 13:09:00,70.4,65.0,29.71,South,181,8.0,9.0,83,0.01,,OVC028,0.19,296.00,VWS V14.01,2013-10-07 17:09:00,
2013-10-07 13:10:00,68.8,64.1,29.75,South,189,6.0,12.0,85,0.06,,-RA,0.18,125.00,VWS V14.01,2013-10-07 17:10:00,
2013-10-07 13:14:00,70.6,64.8,29.71,South,178,5.0,16.0,82,0.01,,OVC028,0.19,238.00,VWS V14.01,2013-10-07 17:14:00,
2013-10-07 13:15:00,68.9,64.2,29.75,SSE,164,6.0,17.0,85,0.05,,-RA,0.18,106.00,VWS V14.01,2013-10-07 17:15:00,
2013-10-07 13:19:00,70.9,64.8,29.70,SSE,165,10.0,11.0,81,0.01,,OVC028,0.19,130.00,VWS V14.01,2013-10-07 17:19:00,
2013-10-07 13:20:00,69.1,64.4,29.75,SSE,148,3.0,13.0,85,0.04,,-RA,0.18,153.00,VWS V14.01,2013-10-07 17:20:00,
2013-10-07 13:24:00,70.8,64.3,29.70,SSE,164,9.0,25.0,80,0.01,,OVC028,0.19,118.00,VWS V14.01,2013-10-07 17:24:00,
2013-10-07 13:25:00,69.1,64.4,29.75,SSE,157,3.0,6.0,85,0.03,,-RA,0.18,123.00,VWS V14.01,2013-10-07 17:25:00,
2013-10-07 13:29:00,70.9,64.1,29.70,SE,145,5.0,7.0,79,0.01,,OVC028,0.19,118.00,VWS V14.01,2013-10-07 17:29:00,
2013-10-07 13:30:00,69.1,64.4,29.73,South,171,2.0,21.0,85,0.04,,-RA,0.19,157.00,VWS V14.01,2013-10-07 17:30:00,
2013-10-07 13:34:00,71.1,63.9,29.69,SSE,158,11.0,16.0,78,0.00,,OVC028,0.19,118.00,VWS V14.01,2013-10-07 17:34:00,
2013-10-07 13:35:00,69.1,64.4,29.73,SSE,167,1.0,13.0,85,0.04,,-RA,0.19,130.00,VWS V14.01,2013-10-07 17:35:00,
2013-10-07 13:39:00,71.5,64.3,29.69,SSW,210,6.0,9.0,78,0.00,,OVC028,0.19,114.00,VWS V14.01,2013-10-07 17:39:00,
2013-10-07 13:40:00,69.3,64.6,29.73,South,176,5.0,16.0,85,0.03,,-RA,0.19,67.00,VWS V14.01,2013-10-07 17:40:00,
2013-10-07 13:44:00,71.6,64.4,29.69,South,169,7.0,16.0,78,0.00,,OVC028,0.19,143.00,VWS V14.01,2013-10-07 17:44:00,
2013-10-07 13:45:00,69.3,64.6,29.72,South,171,2.0,12.0,85,0.03,,-RA,0.19,107.00,VWS V14.01,2013-10-07 17:45:00,
2013-10-07 13:49:00,71.5,64.3,29.69,SSE,155,5.0,12.0,78,0.00,,OVC028,0.19,178.00,VWS V14.01,2013-10-07 17:49:00,
2013-10-07 13:50:00,69.4,64.7,29.72,South,189,8.0,11.0,85,0.03,,-RA,0.19,160.00,VWS V14.01,2013-10-07 17:50:00,
2013-10-07 13:54:00,71.3,64.5,29.69,SSW,199,7.0,15.0,79,0.00,,OVC028,0.19,77.00,VWS V14.01,2013-10-07 17:54:00,
2013-10-07 13:55:00,69.6,64.9,29.72,SSE,157,5.0,14.0,85,0.03,,-RA,0.19,86.00,VWS V14.01,2013-10-07 17:55:00,
2013-10-07 13:59:00,71.3,64.5,29.69,SSW,195,4.0,13.0,79,0.00,,OVC028,0.19,86.00,VWS V14.01,2013-10-07 17:59:00,
2013-10-07 14:00:00,69.8,64.8,29.71,South,169,3.0,13.0,84,0.03,,-RA,0.19,132.00,VWS V14.01,2013-10-07 18:00:00,
2013-10-07 14:04:00,71.1,64.6,29.69,SSW,209,8.0,10.0,80,0.01,,OVC043,0.20,42.00,VWS V14.01,2013-10-07 18:04:00,
2013-10-07 14:05:00,69.9,64.5,29.71,SSW,203,3.0,26.0,83,0.03,,-RA,0.19,157.00,VWS V14.01,2013-10-07 18:05:00,
2013-10-07 14:09:00,70.8,64.3,29.69,SSW,209,1.0,12.0,80,0.03,,OVC043,0.22,46.00,VWS V14.01,2013-10-07 18:09:00,
2013-10-07 14:10:00,70.4,64.7,29.71,SSE,165,3.0,11.0,82,0.01,,-RA,0.19,202.00,VWS V14.01,2013-10-07 18:10:00,
2013-10-07 14:14:00,70.6,64.5,29.69,SSW,206,7.0,20.0,81,0.08,,OVC043,0.27,86.00,VWS V14.01,2013-10-07 18:14:00,
2013-10-07 14:15:00,70.8,64.7,29.70,South,175,14.0,16.0,81,0.01,,-RA,0.19,222.00,VWS V14.01,2013-10-07 18:15:00,
2013-10-07 14:19:00,70.6,64.8,29.69,South,179,5.0,14.0,82,0.10,,-RA,0.29,42.00,VWS V14.01,2013-10-07 18:19:00,
2013-10-07 14:20:00,70.8,64.7,29.70,SSE,157,11.0,11.0,81,0.01,,-RA,0.19,118.00,VWS V14.01,2013-10-07 18:20:00,
2013-10-07 14:24:00,70.4,64.7,29.69,SW,236,10.0,14.0,82,0.10,,-RA,0.29,99.00,VWS V14.01,2013-10-07 18:24:00,
2013-10-07 14:25:00,70.9,64.4,29.70,South,178,3.0,25.0,80,0.01,,-RA,0.19,123.00,VWS V14.01,2013-10-07 18:25:00,
2013-10-07 14:29:00,70.4,65.0,29.69,WSW,240,8.0,14.0,83,0.10,,-RA,0.29,118.00,VWS V14.01,2013-10-07 18:29:00,
2013-10-07 14:30:00,70.9,64.1,29.69,SSW,199,19.0,19.0,79,0.01,,-RA,0.19,95.00,VWS V14.01,2013-10-07 18:30:00,
2013-10-07 14:34:00,70.3,64.9,29.68,South,178,10.0,12.0,83,0.10,, +RA,0.29,185.00,VWS V14.01,2013-10-07 18:34:00,
2013-10-07 14:35:00,71.3,64.1,29.69,SSW,202,6.0,13.0,78,0.00,,-RA,0.19,97.00,VWS V14.01,2013-10-07 18:35:00,
2013-10-07 14:39:00,69.9,64.5,29.68,SW,232,8.0,13.0,83,0.11,, +RA,0.30,46.00,VWS V14.01,2013-10-07 18:39:00,
2013-10-07 14:40:00,71.5,64.3,29.69,WSW,239,7.0,13.0,78,0.00,,-RA,0.19,86.00,VWS V14.01,2013-10-07 18:40:00,
2013-10-07 14:44:00,67.6,61.2,29.68,WSW,246,8.0,30.0,80,0.17,, +RA,0.36,48.00,VWS V14.01,2013-10-07 18:44:00,
2013-10-07 14:45:00,71.6,64.4,29.69,South,191,9.0,16.0,78,0.00,,-RA,0.19,238.00,VWS V14.01,2013-10-07 18:45:00,
2013-10-07 14:49:00,66.4,59.7,29.71,WSW,237,4.0,10.0,79,0.18,, +RA,0.37,65.00,VWS V14.01,2013-10-07 18:49:00,
2013-10-07 14:50:00,71.5,64.3,29.69,South,188,6.0,16.0,78,0.00,,-RA,0.19,171.00,VWS V14.01,2013-10-07 18:50:00,
2013-10-07 14:54:00,66.3,60.0,29.71,SW,234,7.0,11.0,80,0.19,, +RA,0.38,63.00,VWS V14.01,2013-10-07 18:54:00,
2013-10-07 14:55:00,71.3,64.5,29.69,SW,215,10.0,14.0,79,0.00,,-RA,0.19,76.00,VWS V14.01,2013-10-07 18:55:00,
2013-10-07 14:59:00,66.4,60.4,29.71,South,188,1.0,6.0,81,0.19,, +RA,0.38,72.00,VWS V14.01,2013-10-07 18:59:00,
2013-10-07 15:00:00,71.3,64.5,29.69,SSE,165,6.0,8.0,79,0.00,,-RA,0.19,62.00,VWS V14.01,2013-10-07 19:00:00,
2013-10-07 15:04:00,66.3,60.3,29.73,South,172,3.0,8.0,81,0.20,,-RA,0.39,72.00,VWS V14.01,2013-10-07 19:04:00,
2013-10-07 15:05:00,70.9,64.4,29.69,SW,219,4.0,10.0,80,0.02,,-RA,0.21,46.00,VWS V14.01,2013-10-07 19:05:00,
2013-10-07 15:09:00,65.5,59.5,29.73,South,184,4.0,6.0,81,0.18,,-RA,0.39,63.00,VWS V14.01,2013-10-07 19:09:00,
2013-10-07 15:10:00,70.8,64.7,29.69,SSE,161,5.0,13.0,81,0.04,,-RA,0.23,53.00,VWS V14.01,2013-10-07 19:10:00,
2013-10-07 15:14:00,65.0,59.4,29.73,SSW,193,1.0,11.0,82,0.16,,-RA,0.39,81.00,VWS V14.01,2013-10-07 19:14:00,
2013-10-07 15:15:00,70.6,64.5,29.69,SW,236,2.0,20.0,81,0.09,,-RA,0.28,111.00,VWS V14.01,2013-10-07 19:15:00,
2013-10-07 15:18:00,64.8,59.2,29.73,SSW,209,9.0,10.0,82,0.11,,-RA,0.39,106.00,VWS V14.01,2013-10-07 19:18:00,
2013-10-07 15:20:00,70.6,64.8,29.69,South,182,6.0,7.0,82,0.10,,-RA,0.29,44.00,VWS V14.01,2013-10-07 19:20:00,
2013-10-07 15:23:00,64.2,58.6,29.73,SSW,210,7.0,13.0,82,0.11,,-RA,0.40,70.00,VWS V14.01,2013-10-07 19:23:00,
2013-10-07 15:25:00,70.4,65.0,29.69,South,171,5.0,14.0,83,0.10,,-RA,0.29,99.00,VWS V14.01,2013-10-07 19:25:00,
2013-10-07 15:28:00,64.0,58.7,29.73,SSW,208,1.0,6.0,83,0.11,,-RA,0.40,55.00,VWS V14.01,2013-10-07 19:28:00,
2013-10-07 15:30:00,70.4,65.0,29.68,SSE,154,3.0,11.0,83,0.10,,-RA,0.29,123.00,VWS V14.01,2013-10-07 19:30:00,
2013-10-07 15:33:00,64.0,58.7,29.73,SW,215,1.0,8.0,83,0.11,,-RA,0.40,55.00,VWS V14.01,2013-10-07 19:33:00,
2013-10-07 15:35:00,70.1,64.7,29.68,SSW,193,10.0,14.0,83,0.10,,-RA,0.29,81.00,VWS V14.01,2013-10-07 19:35:00,
2013-10-07 15:38:00,63.9,58.6,29.73,SSE,151,3.0,9.0,83,0.11,,-RA,0.40,86.00,VWS V14.01,2013-10-07 19:38:00,
2013-10-07 15:40:00,69.9,64.5,29.68,SW,233,13.0,17.0,83,0.11,,-RA,0.30,42.00,VWS V14.01,2013-10-07 19:40:00,
2013-10-07 15:43:00,64.0,58.7,29.73,SSW,203,2.0,6.0,83,0.11,,-RA,0.41,44.00,VWS V14.01,2013-10-07 19:43:00,
2013-10-07 15:45:00,66.9,60.2,29.71,WSW,239,8.0,16.0,79,0.17,,-RA,0.36,51.00,VWS V14.01,2013-10-07 19:45:00,
2013-10-07 15:48:00,63.9,58.6,29.74,South,181,1.0,6.0,83,0.06,,-RA,0.42,49.00,VWS V14.01,2013-10-07 19:48:00,
2013-10-07 15:50:00,66.4,59.7,29.71,WSW,240,11.0,11.0,79,0.19,,-RA,0.38,65.00,VWS V14.01,2013-10-07 19:50:00,
2013-10-07 15:53:00,63.9,59.0,29.74,SSW,212,2.0,6.0,84,0.04,,-RA,0.42,63.00,VWS V14.01,2013-10-07 19:53:00,
2013-10-07 15:55:00,66.3,60.0,29.71,SSW,209,5.0,11.0,80,0.19,,-RA,0.38,58.00,VWS V14.01,2013-10-07 19:55:00,
2013-10-07 15:58:00,63.9,59.0,29.74,South,175,2.0,11.0,84,0.04,,-RA,0.42,69.00,VWS V14.01,2013-10-07 19:58:00,
2013-10-07 16:00:00,66.6,60.6,29.73,SSE,150,6.0,6.0,81,0.19,,-RA,0.38,69.00,VWS V14.01,2013-10-07 20:00:00,
2013-10-07 16:03:00,63.9,59.0,29.75,SW,234,2.0,7.0,84,0.04,,OVC085,0.42,56.00,VWS V14.01,2013-10-07 20:03:00,
2013-10-07 16:05:00,66.0,60.0,29.73,SW,229,5.0,14.0,81,0.20,,-RA,0.39,77.00,VWS V14.01,2013-10-07 20:05:00,
2013-10-07 16:08:00,63.9,59.0,29.75,SW,224,0.0,3.0,84,0.03,,OVC085,0.42,76.00,VWS V14.01,2013-10-07 20:08:00,
2013-10-07 16:10:00,65.3,59.7,29.73,South,181,6.0,10.0,82,0.18,,-RA,0.39,72.00,VWS V14.01,2013-10-07 20:10:00,
2013-10-07 16:13:00,64.2,59.6,29.75,SSW,202,5.0,6.0,85,0.03,,OVC085,0.42,118.00,VWS V14.01,2013-10-07 20:13:00,
2013-10-07 16:15:00,65.0,59.4,29.73,SW,215,7.0,7.0,82,0.16,,-RA,0.39,88.00,VWS V14.01,2013-10-07 20:15:00,
2013-10-07 16:18:00,64.0,59.4,29.75,South,179,0.0,11.0,85,0.03,,OVC085,0.42,60.00,VWS V14.01,2013-10-07 20:18:00,
2013-10-07 16:20:00,64.7,59.1,29.73,SSW,192,10.0,16.0,82,0.11,,-RA,0.39,99.00,VWS V14.01,2013-10-07 20:20:00,
2013-10-07 16:23:00,64.2,59.6,29.75,SW,219,2.0,9.0,85,0.03,,OVC085,0.42,33.00,VWS V14.01,2013-10-07 20:23:00,
2013-10-07 16:25:00,64.2,58.6,29.73,South,185,5.0,13.0,82,0.11,,-RA,0.40,65.00,VWS V14.01,2013-10-07 20:25:00,
2013-10-07 16:28:00,63.5,58.6,29.75,WNW,296,16.0,16.0,84,0.03,,OVC085,0.43,42.00,VWS V14.01,2013-10-07 20:28:00,
2013-10-07 16:30:00,64.0,58.7,29.73,South,185,3.0,5.0,83,0.11,,-RA,0.40,56.00,VWS V14.01,2013-10-07 20:30:00,
2013-10-07 16:33:00,61.0,55.8,29.76,SW,234,7.0,12.0,83,0.03,,OVC085,0.43,69.00,VWS V14.01,2013-10-07 20:33:00,
2013-10-07 16:35:00,64.0,58.7,29.73,SW,219,0.0,7.0,83,0.11,,-RA,0.40,60.00,VWS V14.01,2013-10-07 20:35:00,
2013-10-07 16:38:00,60.2,55.0,29.76,SW,232,11.0,16.0,83,0.04,,OVC085,0.44,49.00,VWS V14.01,2013-10-07 20:38:00,
2013-10-07 16:40:00,63.9,58.6,29.73,SSW,205,3.0,8.0,83,0.12,,-RA,0.41,81.00,VWS V14.01,2013-10-07 20:40:00,
2013-10-07 16:43:00,59.8,54.6,29.76,WSW,247,7.0,9.0,83,0.03,,OVC085,0.44,30.00,VWS V14.01,2013-10-07 20:43:00,
2013-10-07 16:45:00,63.9,58.6,29.74,SW,224,3.0,5.0,83,0.11,,-RA,0.41,51.00,VWS V14.01,2013-10-07 20:45:00,
2013-10-07 16:48:00,59.6,54.4,29.76,SW,230,10.0,17.0,83,0.03,,OVC085,0.44,14.00,VWS V14.01,2013-10-07 20:48:00,
2013-10-07 16:50:00,63.9,59.0,29.74,SSW,203,4.0,6.0,84,0.06,,-RA,0.42,56.00,VWS V14.01,2013-10-07 20:50:00,
2013-10-07 16:53:00,59.5,54.3,29.76,SW,230,6.0,12.0,83,0.02,,OVC085,0.44,14.00,VWS V14.01,2013-10-07 20:53:00,
2013-10-07 16:55:00,63.9,59.0,29.74,SW,219,2.0,6.0,84,0.04,,-RA,0.42,56.00,VWS V14.01,2013-10-07 20:55:00,
2013-10-07 16:58:00,58.9,53.4,29.76,SSW,210,12.0,13.0,82,0.02,,OVC085,0.44,7.00,VWS V14.01,2013-10-07 20:58:00,
2013-10-07 17:00:00,63.9,59.0,29.75,SSW,205,3.0,7.0,84,0.04,,-RA,0.42,77.00,VWS V14.01,2013-10-07 21:00:00,
2013-10-07 17:03:00,58.6,52.8,29.81,NW,306,6.0,8.0,81,0.02,,-RA,0.44,7.00,VWS V14.01,2013-10-07 21:03:00,
2013-10-07 17:05:00,63.9,59.0,29.75,SSW,198,0.0,6.0,84,0.04,,-RA,0.42,65.00,VWS V14.01,2013-10-07 21:05:00,
2013-10-07 17:08:00,58.3,52.5,29.81,SSW,208,8.0,9.0,81,0.03,,-RA,0.45,7.00,VWS V14.01,2013-10-07 21:08:00,
2013-10-07 17:10:00,64.0,59.4,29.75,South,171,0.0,1.0,85,0.03,,-RA,0.42,90.00,VWS V14.01,2013-10-07 21:10:00,
2013-10-07 17:13:00,58.0,52.2,29.81,WNW,296,1.0,11.0,81,0.03,,-RA,0.45,0.00,VWS V14.01,2013-10-07 21:13:00,
2013-10-07 17:15:00,64.2,59.6,29.75,WSW,239,1.0,6.0,85,0.03,,-RA,0.42,107.00,VWS V14.01,2013-10-07 21:15:00,
2013-10-07 17:18:00,57.8,52.0,29.80,West,260,7.0,20.0,81,0.03,,-RA,0.45,9.00,VWS V14.01,2013-10-07 21:18:00,
2013-10-07 17:20:00,64.2,59.6,29.75,South,181,0.0,5.0,85,0.03,,-RA,0.42,46.00,VWS V14.01,2013-10-07 21:20:00,
2013-10-07 17:23:00,57.6,51.8,29.80,West,275,2.0,10.0,81,0.03,,-RA,0.45,0.00,VWS V14.01,2013-10-07 21:23:00,
2013-10-07 17:25:00,64.0,59.4,29.75,SW,216,6.0,10.0,85,0.03,,-RA,0.42,35.00,VWS V14.01,2013-10-07 21:25:00,
2013-10-07 17:28:00,57.6,51.8,29.80,West,272,2.0,7.0,81,0.03,,-RA,0.45,0.00,VWS V14.01,2013-10-07 21:28:00,
2013-10-07 17:30:00,62.6,57.4,29.76,West,260,2.0,19.0,83,0.03,,-RA,0.43,56.00,VWS V14.01,2013-10-07 21:30:00,
2013-10-07 17:33:00,57.3,51.5,29.82,South,191,1.0,11.0,81,0.02,,-RA,0.45,0.00,VWS V14.01,2013-10-07 21:33:00,
2013-10-07 17:35:00,60.7,55.5,29.76,WSW,247,6.0,9.0,83,0.04,,-RA,0.44,69.00,VWS V14.01,2013-10-07 21:35:00,
2013-10-07 17:38:00,57.3,51.5,29.82,South,191,0.0,5.0,81,0.01,,-RA,0.45,5.00,VWS V14.01,2013-10-07 21:38:00,
2013-10-07 17:40:00,60.1,54.9,29.76,WSW,258,10.0,11.0,83,0.04,,-RA,0.44,49.00,VWS V14.01,2013-10-07 21:40:00,
2013-10-07 17:43:00,57.2,51.4,29.82,SW,223,5.0,8.0,81,0.01,,-RA,0.45,0.00,VWS V14.01,2013-10-07 21:43:00,
2013-10-07 17:45:00,59.6,54.4,29.76,West,271,7.0,17.0,83,0.03,,-RA,0.44,28.00,VWS V14.01,2013-10-07 21:45:00,
2013-10-07 17:48:00,56.9,50.8,29.81,West,261,2.0,8.0,80,0.01,,-RA,0.45,7.00,VWS V14.01,2013-10-07 21:48:00,
2013-10-07 17:50:00,59.5,54.3,29.76,SW,233,5.0,17.0,83,0.03,,-RA,0.44,12.00,VWS V14.01,2013-10-07 21:50:00,
2013-10-07 17:54:00,56.7,50.3,29.81,WSW,250,7.0,11.0,79,0.01,,-RA,0.45,5.00,VWS V14.01,2013-10-07 21:54:00,
2013-10-07 17:55:00,59.2,53.7,29.76,WSW,240,4.0,20.0,82,0.02,,-RA,0.44,7.00,VWS V14.01,2013-10-07 21:55:00,
2013-10-07 17:59:00,56.7,50.3,29.81,WSW,243,5.0,5.0,79,0.01,,-RA,0.45,0.00,VWS V14.01,2013-10-07 21:59:00,
2013-10-07 18:00:00,58.9,53.4,29.81,WSW,258,3.0,12.0,82,0.02,,-RA,0.44,0.00,VWS V14.01,2013-10-07 22:00:00,
2013-10-07 18:04:00,56.7,49.9,29.82,SW,229,0.0,3.0,78,0.01,,OVC040,0.45,0.00,VWS V14.01,2013-10-07 22:04:00,
2013-10-07 18:05:00,58.4,52.6,29.81,SSW,210,9.0,16.0,81,0.02,,-RA,0.44,7.00,VWS V14.01,2013-10-07 22:05:00,
2013-10-07 18:09:00,56.7,49.9,29.82,SW,220,0.0,0.0,78,0.01,,OVC040,0.45,0.00,VWS V14.01,2013-10-07 22:09:00,
2013-10-07 18:10:00,58.1,52.3,29.81,SW,227,11.0,11.0,81,0.03,,-RA,0.45,7.00,VWS V14.01,2013-10-07 22:10:00,
2013-10-07 18:14:00,56.6,50.2,29.82,SW,220,1.0,6.0,79,0.00,,OVC040,0.45,0.00,VWS V14.01,2013-10-07 22:14:00,
2013-10-07 18:15:00,58.0,52.2,29.80,WNW,285,0.0,6.0,81,0.03,,-RA,0.45,0.00,VWS V14.01,2013-10-07 22:15:00,
2013-10-07 18:19:00,56.6,49.8,29.83,SW,219,3.0,6.0,78,0.00,,OVC040,0.45,0.00,VWS V14.01,2013-10-07 22:19:00,
2013-10-07 18:20:00,57.8,52.0,29.80,South,181,5.0,15.0,81,0.03,,-RA,0.45,0.00,VWS V14.01,2013-10-07 22:20:00,
2013-10-07 18:24:00,56.7,49.9,29.83,SW,219,0.0,0.0,78,0.00,,OVC040,0.45,0.00,VWS V14.01,2013-10-07 22:24:00,
2013-10-07 18:25:00,57.6,51.8,29.80,SW,236,6.0,8.0,81,0.03,,-RA,0.45,0.00,VWS V14.01,2013-10-07 22:25:00,
2013-10-07 18:29:00,56.6,49.8,29.83,West,260,1.0,8.0,78,0.00,,OVC040,0.45,0.00,VWS V14.01,2013-10-07 22:29:00,
2013-10-07 18:30:00,57.6,51.8,29.82,WSW,244,0.0,3.0,81,0.03,,-RA,0.45,0.00,VWS V14.01,2013-10-07 22:30:00,
2013-10-07 18:34:00,56.6,49.8,29.83,SW,227,3.0,3.0,78,0.00,,OVC040,0.45,0.00,VWS V14.01,2013-10-07 22:34:00,
2013-10-07 18:35:00,57.3,51.5,29.82,South,191,0.0,7.0,81,0.02,,-RA,0.45,0.00,VWS V14.01,2013-10-07 22:35:00,
2013-10-07 18:39:00,56.6,49.5,29.83,SW,217,1.0,6.0,77,0.00,,OVC040,0.45,0.00,VWS V14.01,2013-10-07 22:39:00,
2013-10-07 18:40:00,57.3,51.5,29.82,SSW,192,0.0,1.0,81,0.01,,-RA,0.45,5.00,VWS V14.01,2013-10-07 22:40:00,
2013-10-07 18:44:00,56.7,49.6,29.83,SW,216,0.0,0.0,77,0.00,,OVC040,0.45,0.00,VWS V14.01,2013-10-07 22:44:00,
2013-10-07 18:45:00,57.0,50.9,29.81,West,270,11.0,11.0,80,0.01,,-RA,0.45,7.00,VWS V14.01,2013-10-07 22:45:00,
2013-10-07 18:49:00,56.7,49.6,29.83,NW,311,1.0,6.0,77,0.00,,OVC040,0.45,0.00,VWS V14.01,2013-10-07 22:49:00,
2013-10-07 18:50:00,56.9,50.8,29.81,West,261,0.0,7.0,80,0.01,,-RA,0.45,7.00,VWS V14.01,2013-10-07 22:50:00,
2013-10-07 18:54:00,56.7,49.6,29.83,WSW,258,1.0,7.0,77,0.00,,OVC040,0.45,0.00,VWS V14.01,2013-10-07 22:54:00,
2013-10-07 18:55:00,56.7,50.3,29.81,WSW,254,3.0,11.0,79,0.01,,-RA,0.45,5.00,VWS V14.01,2013-10-07 22:55:00,
2013-10-07 18:59:00,56.9,49.8,29.83,WSW,251,5.0,7.0,77,0.00,,OVC040,0.45,0.00,VWS V14.01,2013-10-07 22:59:00,
2013-10-07 19:00:00,56.7,49.9,29.82,West,275,0.0,11.0,78,0.01,,-RA,0.45,0.00,VWS V14.01,2013-10-07 23:00:00,
2013-10-07 19:04:00,56.9,49.4,29.84,SW,222,2.0,6.0,76,0.00,,OVC047,0.45,0.00,VWS V14.01,2013-10-07 23:04:00,
2013-10-07 19:05:00,56.7,49.9,29.82,SW,229,0.0,0.0,78,0.01,,-RA,0.45,0.00,VWS V14.01,2013-10-07 23:05:00,
2013-10-07 19:09:00,56.9,49.1,29.84,West,263,0.0,0.0,75,0.00,,OVC047,0.45,0.00,VWS V14.01,2013-10-07 23:09:00,
2013-10-07 19:10:00,56.7,49.9,29.82,SW,220,0.0,0.0,78,0.01,,-RA,0.45,0.00,VWS V14.01,2013-10-07 23:10:00,
2013-10-07 19:14:00,56.9,49.1,29.84,West,271,0.0,5.0,75,0.00,,OVC047,0.45,0.00,VWS V14.01,2013-10-07 23:14:00,
2013-10-07 19:15:00,56.6,50.2,29.83,SW,220,0.0,6.0,79,0.00,,-RA,0.45,0.00,VWS V14.01,2013-10-07 23:15:00,
2013-10-07 19:19:00,56.9,48.7,29.84,West,271,4.0,10.0,74,0.00,,OVC047,0.45,0.00,VWS V14.01,2013-10-07 23:19:00,
2013-10-07 19:20:00,56.6,49.8,29.83,SW,219,0.0,6.0,78,0.00,,-RA,0.45,0.00,VWS V14.01,2013-10-07 23:20:00,
2013-10-07 19:24:00,57.0,48.8,29.84,WSW,258,3.0,10.0,74,0.00,,OVC047,0.45,0.00,VWS V14.01,2013-10-07 23:24:00,
2013-10-07 19:25:00,56.7,49.9,29.83,SW,219,0.0,0.0,78,0.00,,-RA,0.45,0.00,VWS V14.01,2013-10-07 23:25:00,
2013-10-07 19:29:00,57.0,48.8,29.84,WSW,240,0.0,4.0,74,0.00,,OVC047,0.45,0.00,VWS V14.01,2013-10-07 23:29:00,
2013-10-07 19:30:00,56.6,49.8,29.83,West,260,0.0,5.0,78,0.00,,-RA,0.45,0.00,VWS V14.01,2013-10-07 23:30:00,
2013-10-07 19:34:00,57.0,48.8,29.84,WSW,240,0.0,0.0,74,0.00,,OVC047,0.45,0.00,VWS V14.01,2013-10-07 23:34:00,
2013-10-07 19:35:00,56.6,49.8,29.83,SW,226,0.0,3.0,78,0.00,,-RA,0.45,0.00,VWS V14.01,2013-10-07 23:35:00,
2013-10-07 19:39:00,57.0,48.8,29.84,WSW,240,0.0,0.0,74,0.00,,OVC047,0.45,0.00,VWS V14.01,2013-10-07 23:39:00,
2013-10-07 19:40:00,56.6,49.5,29.83,SW,216,0.0,6.0,77,0.00,,-RA,0.45,0.00,VWS V14.01,2013-10-07 23:40:00,
2013-10-07 19:44:00,56.9,49.1,29.84,WSW,240,0.0,0.0,75,0.00,,OVC047,0.45,0.00,VWS V14.01,2013-10-07 23:44:00,
2013-10-07 19:45:00,56.7,49.6,29.83,SW,217,0.0,0.0,77,0.00,,-RA,0.45,0.00,VWS V14.01,2013-10-07 23:45:00,
2013-10-07 19:48:00,56.7,48.9,29.85,WSW,240,0.0,0.0,75,0.00,,OVC047,0.45,0.00,VWS V14.01,2013-10-07 23:48:00,
2013-10-07 19:50:00,56.7,49.6,29.83,NW,311,0.0,6.0,77,0.00,,-RA,0.45,0.00,VWS V14.01,2013-10-07 23:50:00,
2013-10-07 19:53:00,56.7,48.5,29.85,WNW,288,0.0,2.0,74,0.00,,OVC047,0.45,0.00,VWS V14.01,2013-10-07 23:53:00,
2013-10-07 19:55:00,56.7,49.6,29.83,WSW,258,0.0,3.0,77,0.00,,-RA,0.45,0.00,VWS V14.01,2013-10-07 23:55:00,
2013-10-07 19:58:00,56.7,48.5,29.85,WNW,288,0.0,0.0,74,0.00,,OVC047,0.45,0.00,VWS V14.01,2013-10-07 23:58:00,
2013-10-07 20:00:00,56.7,49.2,29.84,SW,219,5.0,7.0,76,0.00,,-RA,0.45,0.00,VWS V14.01,2013-10-08 00:00:00,
2013-10-07 20:03:00,56.9,48.7,29.85,West,272,0.0,0.0,74,0.00,,OVC049,0.45,0.00,VWS V14.01,2013-10-08 00:03:00,
2013-10-07 20:05:00,56.7,49.2,29.84,West,264,2.0,9.0,76,0.00,,-RA,0.45,0.00,VWS V14.01,2013-10-08 00:05:00,
2013-10-07 20:08:00,56.9,48.7,29.85,West,267,0.0,0.0,74,0.00,,OVC049,0.45,0.00,VWS V14.01,2013-10-08 00:08:00,
2013-10-07 20:10:00,56.9,49.4,29.84,West,263,0.0,0.0,76,0.00,,-RA,0.45,0.00,VWS V14.01,2013-10-08 00:10:00,
2013-10-07 20:13:00,56.9,49.1,29.85,West,265,0.0,2.0,75,0.00,,OVC049,0.45,0.00,VWS V14.01,2013-10-08 00:13:00,
2013-10-07 20:15:00,56.9,49.1,29.84,WNW,294,8.0,8.0,75,0.00,,-RA,0.45,0.00,VWS V14.01,2013-10-08 00:15:00,
2013-10-07 20:18:00,56.7,48.5,29.86,SW,232,5.0,6.0,74,0.00,,OVC049,0.45,0.00,VWS V14.01,2013-10-08 00:18:00,
2013-10-07 20:20:00,56.9,48.7,29.84,West,271,0.0,7.0,74,0.00,,-RA,0.45,0.00,VWS V14.01,2013-10-08 00:20:00,
2013-10-07 20:23:00,56.9,48.7,29.86,WSW,250,2.0,8.0,74,0.00,,OVC049,0.45,0.00,VWS V14.01,2013-10-08 00:23:00,
2013-10-07 20:25:00,57.0,48.8,29.84,WSW,258,2.0,5.0,74,0.00,,-RA,0.45,0.00,VWS V14.01,2013-10-08 00:25:00,
2013-10-07 20:28:00,56.7,48.5,29.86,WSW,250,0.0,0.0,74,0.00,,OVC049,0.45,0.00,VWS V14.01,2013-10-08 00:28:00,
2013-10-07 20:30:00,57.0,48.8,29.84,WSW,240,0.0,1.0,74,0.00,,-RA,0.45,0.00,VWS V14.01,2013-10-08 00:30:00,
2013-10-07 20:33:00,56.7,48.5,29.86,WSW,247,6.0,6.0,74,0.00,,OVC049,0.45,0.00,VWS V14.01,2013-10-08 00:33:00,
2013-10-07 20:35:00,57.0,48.8,29.84,WSW,240,0.0,0.0,74,0.00,,-RA,0.45,0.00,VWS V14.01,2013-10-08 00:35:00,
2013-10-07 20:38:00,56.7,48.5,29.86,WSW,247,0.0,0.0,74,0.00,,OVC049,0.45,0.00,VWS V14.01,2013-10-08 00:38:00,
2013-10-07 20:40:00,57.0,48.8,29.84,WSW,240,0.0,0.0,74,0.00,,-RA,0.45,0.00,VWS V14.01,2013-10-08 00:40:00,
2013-10-07 20:43:00,56.6,48.8,29.86,WSW,247,0.0,5.0,75,0.00,,OVC049,0.45,0.00,VWS V14.01,2013-10-08 00:43:00,
2013-10-07 20:45:00,56.7,48.9,29.85,WSW,240,0.0,3.0,75,0.00,,-RA,0.45,0.00,VWS V14.01,2013-10-08 00:45:00,
2013-10-07 20:48:00,56.6,48.8,29.86,SW,233,4.0,7.0,75,0.00,,OVC049,0.45,0.00,VWS V14.01,2013-10-08 00:48:00,
2013-10-07 20:50:00,56.7,48.5,29.85,WSW,240,0.0,0.0,74,0.00,,-RA,0.45,0.00,VWS V14.01,2013-10-08 00:50:00,
2013-10-07 20:53:00,56.5,48.7,29.86,West,260,0.0,3.0,75,0.00,,OVC049,0.45,0.00,VWS V14.01,2013-10-08 00:53:00,
2013-10-07 20:55:00,56.7,48.5,29.85,WNW,288,0.0,1.0,74,0.00,,-RA,0.45,0.00,VWS V14.01,2013-10-08 00:55:00,
2013-10-07 20:58:00,56.5,48.3,29.86,SW,223,4.0,7.0,74,0.00,,OVC049,0.45,0.00,VWS V14.01,2013-10-08 00:58:00,
2013-10-07 21:00:00,56.9,48.7,29.85,WNW,288,0.0,0.0,74,0.00,,-RA,0.45,0.00,VWS V14.01,2013-10-08 01:00:00,
2013-10-07 21:03:00,56.6,48.4,29.87,WSW,250,0.0,2.0,74,0.00,,OVC060,0.45,0.00,VWS V14.01,2013-10-08 01:03:00,
2013-10-07 21:05:00,56.9,48.7,29.85,West,272,0.0,0.0,74,0.00,,-RA,0.45,0.00,VWS V14.01,2013-10-08 01:05:00,
2013-10-07 21:08:00,56.6,48.1,29.87,WNW,291,0.0,7.0,73,0.00,,OVC060,0.45,0.00,VWS V14.01,2013-10-08 01:08:00,
2013-10-07 21:10:00,56.9,48.7,29.85,West,267,0.0,0.0,74,0.00,,-RA,0.45,0.00,VWS V14.01,2013-10-08 01:10:00,
2013-10-07 21:13:00,56.6,48.1,29.87,SW,217,0.0,3.0,73,0.00,,OVC060,0.45,0.00,VWS V14.01,2013-10-08 01:13:00,
2013-10-07 21:15:00,56.7,48.5,29.86,West,265,0.0,3.0,74,0.00,,-RA,0.45,0.00,VWS V14.01,2013-10-08 01:15:00,
2013-10-07 21:18:00,56.6,47.7,29.87,WSW,258,6.0,6.0,72,0.00,,OVC060,0.45,0.00,VWS V14.01,2013-10-08 01:18:00,
2013-10-07 21:20:00,56.7,48.5,29.86,SW,232,0.0,6.0,74,0.00,,-RA,0.45,0.00,VWS V14.01,2013-10-08 01:20:00,
2013-10-07 21:23:00,56.6,47.3,29.87,WSW,256,0.0,2.0,71,0.00,,OVC060,0.45,0.00,VWS V14.01,2013-10-08 01:23:00,
2013-10-07 21:25:00,56.9,48.7,29.86,WSW,250,0.0,3.0,74,0.00,,-RA,0.45,0.00,VWS V14.01,2013-10-08 01:25:00,
2013-10-07 21:28:00,56.6,47.3,29.87,West,270,2.0,10.0,71,0.00,,OVC060,0.45,0.00,VWS V14.01,2013-10-08 01:28:00,
2013-10-07 21:30:00,56.7,48.5,29.86,WSW,250,0.0,0.0,74,0.00,,-RA,0.45,0.00,VWS V14.01,2013-10-08 01:30:00,
2013-10-07 21:33:00,56.6,46.6,29.87,West,263,3.0,8.0,69,0.00,,OVC060,0.45,0.00,VWS V14.01,2013-10-08 01:33:00,
2013-10-07 21:35:00,56.7,48.5,29.86,WSW,247,0.0,7.0,74,0.00,,-RA,0.45,0.00,VWS V14.01,2013-10-08 01:35:00,
2013-10-07 21:38:00,56.7,46.3,29.87,SW,227,0.0,5.0,68,0.00,,OVC060,0.45,0.00,VWS V14.01,2013-10-08 01:38:00,
2013-10-07 21:40:00,56.7,48.9,29.86,WSW,247,0.0,0.0,75,0.00,,-RA,0.45,0.00,VWS V14.01,2013-10-08 01:40:00,
2013-10-07 21:43:00,56.7,45.9,29.87,North,0,4.0,4.0,67,0.00,,OVC060,0.45,0.00,VWS V14.01,2013-10-08 01:43:00,
2013-10-07 21:45:00,56.6,48.8,29.86,WSW,247,0.0,1.0,75,0.00,,-RA,0.45,0.00,VWS V14.01,2013-10-08 01:45:00,
2013-10-07 21:48:00,56.7,45.5,29.88,WNW,295,0.0,0.0,66,0.00,,OVC060,0.45,0.00,VWS V14.01,2013-10-08 01:48:00,
2013-10-07 21:50:00,56.5,48.7,29.86,SW,233,1.0,7.0,75,0.00,,-RA,0.45,0.00,VWS V14.01,2013-10-08 01:50:00,
2013-10-07 21:53:00,56.6,45.0,29.88,North,10,6.0,12.0,65,0.00,,OVC060,0.45,0.00,VWS V14.01,2013-10-08 01:53:00,
2013-10-07 21:55:00,56.5,48.7,29.86,West,260,0.0,0.0,75,0.00,,-RA,0.45,0.00,VWS V14.01,2013-10-08 01:55:00,
2013-10-07 21:58:00,56.7,44.7,29.88,NW,305,0.0,7.0,64,0.00,,OVC060,0.45,0.00,VWS V14.01,2013-10-08 01:58:00,
2013-10-07 22:00:00,56.5,48.3,29.87,WSW,246,6.0,6.0,74,0.00,,-RA,0.45,0.00,VWS V14.01,2013-10-08 02:00:00,
2013-10-07 22:03:00,56.7,44.7,29.88,North,353,0.0,1.0,64,0.00,,BKN065,0.45,0.00,VWS V14.01,2013-10-08 02:03:00,
2013-10-07 22:05:00,56.6,48.4,29.87,WSW,250,3.0,9.0,74,0.00,,-RA,0.45,0.00,VWS V14.01,2013-10-08 02:05:00,
2013-10-07 22:08:00,56.6,44.6,29.88,WNW,289,0.0,3.0,64,0.00,,BKN065,0.45,0.00,VWS V14.01,2013-10-08 02:08:00,
2013-10-07 22:10:00,56.6,48.1,29.87,WNW,287,0.0,2.0,73,0.00,,-RA,0.45,0.00,VWS V14.01,2013-10-08 02:10:00,
2013-10-07 22:13:00,56.5,43.2,29.88,WSW,244,0.0,10.0,61,0.00,,BKN065,0.45,0.00,VWS V14.01,2013-10-08 02:13:00,
2013-10-07 22:15:00,56.6,48.1,29.87,NW,306,4.0,7.0,73,0.00,,-RA,0.45,0.00,VWS V14.01,2013-10-08 02:15:00,
2013-10-07 22:18:00,56.5,43.2,29.88,West,263,0.0,7.0,61,0.00,,BKN065,0.45,0.00,VWS V14.01,2013-10-08 02:18:00,
2013-10-07 22:20:00,56.6,47.7,29.87,WSW,256,0.0,6.0,72,0.00,,-RA,0.45,0.00,VWS V14.01,2013-10-08 02:20:00,
2013-10-07 22:23:00,56.3,43.0,29.88,North,349,0.0,3.0,61,0.00,,BKN065,0.45,0.00,VWS V14.01,2013-10-08 02:23:00,
2013-10-07 22:25:00,56.6,47.3,29.87,WSW,256,0.0,0.0,71,0.00,,-RA,0.45,0.00,VWS V14.01,2013-10-08 02:25:00,
2013-10-07 22:28:00,56.3,42.6,29.88,NW,304,0.0,6.0,60,0.00,,BKN065,0.45,0.00,VWS V14.01,2013-10-08 02:28:00,
2013-10-07 22:30:00,56.6,46.9,29.87,West,268,0.0,6.0,70,0.00,,-RA,0.45,0.00,VWS V14.01,2013-10-08 02:30:00,
2013-10-07 22:33:00,56.3,41.7,29.89,NNW,347,3.0,7.0,58,0.00,,BKN065,0.45,0.00,VWS V14.01,2013-10-08 02:33:00,
2013-10-07 22:35:00,56.6,46.6,29.87,WNW,298,6.0,7.0,69,0.00,,-RA,0.45,0.00,VWS V14.01,2013-10-08 02:35:00,
2013-10-07 22:38:00,56.3,41.7,29.89,NNW,335,5.0,7.0,58,0.00,,BKN065,0.45,0.00,VWS V14.01,2013-10-08 02:38:00,
2013-10-07 22:40:00,56.6,45.8,29.87,West,268,3.0,10.0,67,0.00,,-RA,0.45,0.00,VWS V14.01,2013-10-08 02:40:00,
2013-10-07 22:43:00,56.3,41.3,29.89,WNW,289,3.0,10.0,57,0.00,,BKN065,0.45,0.00,VWS V14.01,2013-10-08 02:43:00,
2013-10-07 22:45:00,56.7,45.5,29.88,WNW,295,0.0,5.0,66,0.00,,-RA,0.45,0.00,VWS V14.01,2013-10-08 02:45:00,
2013-10-07 22:48:00,56.3,41.3,29.89,WNW,289,3.0,3.0,57,0.00,,BKN065,0.45,0.00,VWS V14.01,2013-10-08 02:48:00,
2013-10-07 22:50:00,56.7,45.5,29.88,WSW,251,4.0,6.0,66,0.00,,-RA,0.45,0.00,VWS V14.01,2013-10-08 02:50:00,
2013-10-07 22:53:00,56.3,41.3,29.89,NW,309,6.0,8.0,57,0.00,,BKN065,0.45,0.00,VWS V14.01,2013-10-08 02:53:00,
2013-10-07 22:55:00,56.7,45.1,29.88,NNW,340,0.0,10.0,65,0.00,,-RA,0.45,0.00,VWS V14.01,2013-10-08 02:55:00,
2013-10-07 22:58:00,56.3,41.3,29.89,NNW,344,0.0,0.0,57,0.00,,BKN065,0.45,0.00,VWS V14.01,2013-10-08 02:58:00,
2013-10-07 23:00:00,56.6,44.6,29.88,NW,308,5.0,5.0,64,0.00,,-RA,0.45,0.00,VWS V14.01,2013-10-08 03:00:00,
2013-10-07 23:03:00,56.2,40.7,29.90,West,278,0.0,3.0,56,0.00,,CLR,0.45,0.00,VWS V14.01,2013-10-08 03:03:00,
2013-10-07 23:05:00,56.6,44.6,29.88,NW,322,0.0,3.0,64,0.00,,-RA,0.45,0.00,VWS V14.01,2013-10-08 03:05:00,
2013-10-07 23:08:00,56.0,40.1,29.90,WNW,292,0.0,6.0,55,0.00,,CLR,0.45,0.00,VWS V14.01,2013-10-08 03:08:00,
2013-10-07 23:10:00,56.5,44.1,29.88,West,264,3.0,8.0,63,0.00,,-RA,0.45,0.00,VWS V14.01,2013-10-08 03:10:00,
2013-10-07 23:13:00,56.0,40.5,29.90,WNW,282,0.0,1.0,56,0.00,,CLR,0.45,0.00,VWS V14.01,2013-10-08 03:13:00,
2013-10-07 23:15:00,56.5,43.7,29.88,West,261,3.0,5.0,62,0.00,,-RA,0.45,0.00,VWS V14.01,2013-10-08 03:15:00,
2013-10-07 23:18:00,55.7,40.3,29.91,WNW,282,0.0,0.0,56,0.00,,CLR,0.45,0.00,VWS V14.01,2013-10-08 03:18:00,
2013-10-07 23:20:00,56.5,43.2,29.88,West,263,0.0,1.0,61,0.00,,-RA,0.45,0.00,VWS V14.01,2013-10-08 03:20:00,
2013-10-07 23:23:00,55.4,40.0,29.91,West,281,0.0,3.0,56,0.00,,CLR,0.45,0.00,VWS V14.01,2013-10-08 03:23:00,
2013-10-07 23:25:00,56.3,43.0,29.88,West,271,0.0,9.0,61,0.00,,-RA,0.45,0.00,VWS V14.01,2013-10-08 03:25:00,
2013-10-07 23:28:00,55.3,40.3,29.91,West,281,0.0,0.0,57,0.00,,CLR,0.45,0.00,VWS V14.01,2013-10-08 03:28:00,
2013-10-07 23:30:00,56.3,42.6,29.89,NW,309,5.0,5.0,60,0.00,,-RA,0.45,0.00,VWS V14.01,2013-10-08 03:30:00,
2013-10-07 23:33:00,55.0,40.1,29.91,West,281,0.0,0.0,57,0.00,,CLR,0.45,0.00,VWS V14.01,2013-10-08 03:33:00,
2013-10-07 23:35:00,56.3,41.7,29.89,NW,323,1.0,7.0,58,0.00,,-RA,0.45,0.00,VWS V14.01,2013-10-08 03:35:00,
2013-10-07 23:38:00,54.8,39.9,29.91,West,281,0.0,2.0,57,0.00,,CLR,0.45,0.00,VWS V14.01,2013-10-08 03:38:00,
2013-10-07 23:40:00,56.3,41.3,29.89,WNW,299,3.0,7.0,57,0.00,,-RA,0.45,0.00,VWS V14.01,2013-10-08 03:40:00,
2013-10-07 23:43:00,55.0,39.6,29.91,SW,232,0.0,2.0,56,0.00,,CLR,0.45,0.00,VWS V14.01,2013-10-08 03:43:00,
2013-10-07 23:45:00,56.3,41.3,29.89,WNW,289,3.0,3.0,57,0.00,,-RA,0.45,0.00,VWS V14.01,2013-10-08 03:45:00,
2013-10-07 23:48:00,55.0,40.1,29.92,SW,232,0.0,0.0,57,0.00,,CLR,0.45,0.00,VWS V14.01,2013-10-08 03:48:00,
2013-10-07 23:50:00,56.3,41.3,29.89,WNW,289,3.0,3.0,57,0.00,,-RA,0.45,0.00,VWS V14.01,2013-10-08 03:50:00,
2013-10-07 23:53:00,54.7,40.2,29.92,SW,232,2.0,5.0,58,0.00,,CLR,0.45,0.00,VWS V14.01,2013-10-08 03:53:00,
2013-10-07 23:55:00,56.3,41.3,29.89,NNW,344,2.0,7.0,57,0.00,,-RA,0.45,0.00,VWS V14.01,2013-10-08 03:55:00,
2013-10-07 23:58:00,54.5,40.5,29.92,SW,232,0.0,0.0,59,0.00,,CLR,0.45,0.00,VWS V14.01,2013-10-08 03:58:00,